| time (UTC) | temp F | wind direction | speed knots | gust knots | rain 1hr in | rain 24hr in | rain mn in | humidity % | barometer mb |
| 20260510231116 | 88 | 0.0 | 0.0 | 0.00 | 0.00 | 0.00 | 17 | 1019.4 | |
| 20260510231016 | 88 | 0.0 | 0.0 | 0.00 | 0.00 | 0.00 | 17 | 1019.5 | |
| 20260510230916 | 88 | 0.0 | 0.0 | 0.00 | 0.00 | 0.00 | 17 | 1019.9 | |
| 20260510230837 | 88 | 0.0 | 0.0 | 0.00 | 0.00 | 0.00 | 16 | 1019.8 | |
| 20260510230716 | 88 | 0.0 | 0.0 | 0.00 | 0.00 | 0.00 | 16 | 1019.7 | |
| 20260510230639 | 88 | 0.0 | 0.0 | 0.00 | 0.00 | 0.00 | 16 | 1019.7 | |
| 20260510230516 | 89 | 0.0 | 0.0 | 0.00 | 0.00 | 0.00 | 15 | 1019.7 | |
| 20260510230416 | 89 | 0.0 | 0.0 | 0.00 | 0.00 | 0.00 | 15 | 1019.6 | |
| 20260510230316 | 89 | 0.0 | 0.0 | 0.00 | 0.00 | 0.00 | 13 | 1019.5 | |
| 20260510230216 | 89 | 0.0 | 0.0 | 0.00 | 0.00 | 0.00 | 13 | 1019.4 | |
| 20260510230117 | 88 | 0.0 | 0.0 | 0.00 | 0.00 | 0.00 | 14 | 1019.3 | |
| 20260510230016 | 88 | 0.0 | 0.0 | 0.00 | 0.00 | 0.00 | 13 | 1019.3 | |
| 20260510225916 | 88 | 0.0 | 0.0 | 0.00 | 0.00 | 0.00 | 13 | 1019.3 | |
| 20260510225816 | 88 | 0.0 | 0.0 | 0.00 | 0.00 | 0.00 | 13 | 1019.4 | |
| 20260510225716 | 88 | 0.0 | 0.0 | 0.00 | 0.00 | 0.00 | 13 | 1019.4 | |
| 20260510225616 | 88 | 0.0 | 0.0 | 0.00 | 0.00 | 0.00 | 13 | 1019.3 | |
| 20260510225516 | 87 | 0.0 | 0.0 | 0.00 | 0.00 | 0.00 | 13 | 1019.2 | |
| 20260510225417 | 87 | 0.0 | 0.0 | 0.00 | 0.00 | 0.00 | 14 | 1019.2 | |
| 20260510225316 | 87 | 0.0 | 0.0 | 0.00 | 0.00 | 0.00 | 15 | 1019.3 | |
| 20260510225216 | 87 | 0.0 | 0.0 | 0.00 | 0.00 | 0.00 | 16 | 1019.3 | |
| 20260510225116 | 87 | 0.0 | 0.0 | 0.00 | 0.00 | 0.00 | 16 | 1019.2 | |
| 20260510225016 | 86 | 0.0 | 0.0 | 0.00 | 0.00 | 0.00 | 18 | 1019.3 | |
| 20260510224916 | 86 | 0.0 | 0.0 | 0.00 | 0.00 | 0.00 | 19 | 1019.5 | |
| 20260510224816 | 86 | 0.0 | 0.0 | 0.00 | 0.00 | 0.00 | 19 | 1019.3 | |
| 20260510224716 | 86 | 0.0 | 0.0 | 0.00 | 0.00 | 0.00 | 19 | 1019.5 | |
| 20260510224616 | 86 | 0.0 | 0.0 | 0.00 | 0.00 | 0.00 | 19 | 1019.4 | |
| 20260510224516 | 86 | 0.0 | 0.0 | 0.00 | 0.00 | 0.00 | 19 | 1019.6 | |
| 20260510224416 | 87 | 0.0 | 0.0 | 0.00 | 0.00 | 0.00 | 19 | 1019.5 | |
| 20260510224316 | 87 | 0.0 | 0.0 | 0.00 | 0.00 | 0.00 | 19 | 1019.7 | |
| 20260510224236 | 87 | 0.0 | 0.0 | 0.00 | 0.00 | 0.00 | 19 | 1019.8 | |
| 20260510224116 | 87 | 0.0 | 0.0 | 0.00 | 0.00 | 0.00 | 18 | 1019.9 | |
| 20260510224016 | 87 | 0.0 | 0.0 | 0.00 | 0.00 | 0.00 | 18 | 1020.0 | |
| 20260510223916 | 87 | 0.0 | 0.0 | 0.00 | 0.00 | 0.00 | 17 | 1019.8 | |
| 20260510223816 | 87 | 0.0 | 0.0 | 0.00 | 0.00 | 0.00 | 16 | 1020.0 | |
| 20260510223716 | 87 | 0.0 | 0.0 | 0.00 | 0.00 | 0.00 | 15 | 1020.3 | |
| 20260510223638 | 87 | 0.0 | 0.0 | 0.00 | 0.00 | 0.00 | 18 | 1020.4 | |
| 20260510223516 | 87 | 0.0 | 0.0 | 0.00 | 0.00 | 0.00 | 18 | 1020.4 | |
| 20260510223416 | 87 | 0.0 | 0.0 | 0.00 | 0.00 | 0.00 | 18 | 1020.4 | |
| 20260510223316 | 87 | 0.0 | 0.0 | 0.00 | 0.00 | 0.00 | 18 | 1020.3 | |
| 20260510223216 | 87 | 0.0 | 0.0 | 0.00 | 0.00 | 0.00 | 18 | 1020.1 | |
| 20260510223116 | 87 | 0.0 | 0.0 | 0.00 | 0.00 | 0.00 | 18 | 1020.2 | |
| 20260510223016 | 88 | 0.0 | 0.0 | 0.00 | 0.00 | 0.00 | 18 | 1020.3 | |
| 20260510222916 | 88 | 0.0 | 0.0 | 0.00 | 0.00 | 0.00 | 18 | 1020.2 | |
| 20260510222816 | 88 | 0.0 | 0.0 | 0.00 | 0.00 | 0.00 | 18 | 1020.1 | |
| 20260510222716 | 89 | 0.0 | 0.0 | 0.00 | 0.00 | 0.00 | 17 | 1020.1 | |
| 20260510222616 | 89 | 0.0 | 0.0 | 0.00 | 0.00 | 0.00 | 16 | 1020.3 | |
| 20260510222516 | 90 | 0.0 | 0.0 | 0.00 | 0.00 | 0.00 | 14 | 1020.2 | |
| 20260510222416 | 90 | 0.0 | 0.0 | 0.00 | 0.00 | 0.00 | 12 | 1020.0 | |
| 20260510222317 | 90 | 0.0 | 0.0 | 0.00 | 0.00 | 0.00 | 11 | 1019.9 | |
| 20260510222216 | 90 | 0.0 | 0.0 | 0.00 | 0.00 | 0.00 | 10 | 1019.7 | |
| 20260510222117 | 90 | 0.0 | 0.0 | 0.00 | 0.00 | 0.00 | 11 | 1019.7 | |
| 20260510222016 | 90 | 0.0 | 0.0 | 0.00 | 0.00 | 0.00 | 10 | 1019.3 | |
| 20260510221936 | 90 | 0.0 | 0.0 | 0.00 | 0.00 | 0.00 | 10 | 1019.3 | |
| 20260510221816 | 90 | 0.0 | 0.0 | 0.00 | 0.00 | 0.00 | 10 | 1019.6 | |
| 20260510221716 | 90 | 0.0 | 0.0 | 0.00 | 0.00 | 0.00 | 10 | 1019.4 | |
| 20260510221616 | 91 | 0.0 | 0.0 | 0.00 | 0.00 | 0.00 | 10 | 1019.4 | |
| 20260510221517 | 91 | 0.0 | 0.0 | 0.00 | 0.00 | 0.00 | 10 | 1019.3 | |
| 20260510221416 | 91 | 0.0 | 0.0 | 0.00 | 0.00 | 0.00 | 11 | 1019.5 | |
| 20260510221358 | 91 | 0.0 | 0.0 | 0.00 | 0.00 | 0.00 | 11 | 1019.3 | |
| 20260510221257 | 91 | 0.0 | 0.0 | 0.00 | 0.00 | 0.00 | 10 | 1019.3 | |
| 20260510221116 | 91 | 0.0 | 0.0 | 0.00 | 0.00 | 0.00 | 10 | 1019.3 | |
| 20260510221016 | 91 | 0.0 | 0.0 | 0.00 | 0.00 | 0.00 | 10 | 1019.2 | |
| 20260510220938 | 91 | 0.0 | 0.0 | 0.00 | 0.00 | 0.00 | 10 | 1019.2 | |
| 20260510220816 | 91 | 0.0 | 0.0 | 0.00 | 0.00 | 0.00 | 10 | 1019.1 | |
| 20260510220717 | 91 | 0.0 | 0.0 | 0.00 | 0.00 | 0.00 | 10 | 1019.1 | |
| 20260510220616 | 91 | 0.0 | 0.0 | 0.00 | 0.00 | 0.00 | 10 | 1019.1 | |
| 20260510220516 | 91 | 0.0 | 0.0 | 0.00 | 0.00 | 0.00 | 10 | 1019.1 | |
| 20260510220416 | 91 | 0.0 | 0.0 | 0.00 | 0.00 | 0.00 | 11 | 1019.1 | |
| 20260510220316 | 91 | 0.0 | 0.0 | 0.00 | 0.00 | 0.00 | 10 | 1019.1 | |
| 20260510220217 | 91 | 0.0 | 0.0 | 0.00 | 0.00 | 0.00 | 10 | 1019.1 | |
| 20260510220116 | 91 | 0.0 | 0.0 | 0.00 | 0.00 | 0.00 | 10 | 1019.1 | |
| 20260510220017 | 91 | 0.0 | 0.0 | 0.00 | 0.00 | 0.00 | 10 | 1019.3 | |
| 20260510215916 | 91 | 0.0 | 0.0 | 0.00 | 0.00 | 0.00 | 10 | 1019.4 | |
| 20260510215816 | 91 | 0.0 | 0.0 | 0.00 | 0.00 | 0.00 | 10 | 1019.4 | |
| 20260510215736 | 92 | 0.0 | 0.0 | 0.00 | 0.00 | 0.00 | 10 | 1019.4 | |
| 20260510215616 | 92 | 0.0 | 0.0 | 0.00 | 0.00 | 0.00 | 10 | 1019.4 | |
| 20260510215516 | 92 | 0.0 | 0.0 | 0.00 | 0.00 | 0.00 | 10 | 1019.3 | |
| 20260510215416 | 92 | 0.0 | 0.0 | 0.00 | 0.00 | 0.00 | 10 | 1019.3 | |
| 20260510215306 | 92 | 0.0 | 0.0 | 0.00 | 0.00 | 0.00 | 10 | 1019.6 | |
| 20260510214816 | 92 | 0.0 | 0.0 | 0.00 | 0.00 | 0.00 | 10 | 1019.6 | |
| 20260510214716 | 92 | 0.0 | 0.0 | 0.00 | 0.00 | 0.00 | 10 | 1019.6 | |
| 20260510214616 | 92 | 0.0 | 0.0 | 0.00 | 0.00 | 0.00 | 10 | 1019.6 | |
| 20260510214516 | 92 | 0.0 | 0.0 | 0.00 | 0.00 | 0.00 | 10 | 1019.6 | |
| 20260510214437 | 92 | 0.0 | 0.0 | 0.00 | 0.00 | 0.00 | 10 | 1019.6 | |
| 20260510214317 | 92 | 0.0 | 0.0 | 0.00 | 0.00 | 0.00 | 10 | 1019.6 | |
| 20260510214216 | 92 | 0.0 | 0.0 | 0.00 | 0.00 | 0.00 | 10 | 1019.6 | |
| 20260510214116 | 92 | 0.0 | 0.0 | 0.00 | 0.00 | 0.00 | 11 | 1019.5 | |
| 20260510214017 | 92 | 0.0 | 0.0 | 0.00 | 0.00 | 0.00 | 11 | 1019.6 | |
| 20260510213938 | 92 | 0.0 | 0.0 | 0.00 | 0.00 | 0.00 | 11 | 1019.8 | |
| 20260510213816 | 92 | 0.0 | 0.0 | 0.00 | 0.00 | 0.00 | 11 | 1019.7 | |
| 20260510213716 | 92 | 0.0 | 0.0 | 0.00 | 0.00 | 0.00 | 11 | 1019.8 | |
| 20260510213616 | 92 | 0.0 | 0.0 | 0.00 | 0.00 | 0.00 | 11 | 1019.9 | |
| 20260510213516 | 92 | 0.0 | 0.0 | 0.00 | 0.00 | 0.00 | 11 | 1020.0 | |
| 20260510213416 | 93 | 0.0 | 0.0 | 0.00 | 0.00 | 0.00 | 11 | 1019.9 | |
| 20260510213316 | 93 | 0.0 | 0.0 | 0.00 | 0.00 | 0.00 | 11 | 1019.9 | |
| 20260510213216 | 93 | 0.0 | 0.0 | 0.00 | 0.00 | 0.00 | 11 | 1020.0 | |
| 20260510213116 | 93 | 0.0 | 0.0 | 0.00 | 0.00 | 0.00 | 11 | 1019.9 | |
| 20260510213018 | 93 | 0.0 | 0.0 | 0.00 | 0.00 | 0.00 | 11 | 1019.9 | |
| 20260510212916 | 93 | 0.0 | 0.0 | 0.00 | 0.00 | 0.00 | 11 | 1020.0 | |
| 20260510212817 | 93 | 0.0 | 0.0 | 0.00 | 0.00 | 0.00 | 11 | 1020.0 | |
| 20260510212716 | 93 | 0.0 | 0.0 | 0.00 | 0.00 | 0.00 | 11 | 1020.1 | |
| 20260510212617 | 93 | 0.0 | 0.0 | 0.00 | 0.00 | 0.00 | 11 | 1020.1 | |
| 20260510212516 | 93 | 0.0 | 0.0 | 0.00 | 0.00 | 0.00 | 11 | 1020.2 | |
| 20260510212417 | 92 | 0.0 | 0.0 | 0.00 | 0.00 | 0.00 | 11 | 1020.2 | |
| 20260510212317 | 92 | 0.0 | 0.0 | 0.00 | 0.00 | 0.00 | 12 | 1020.3 | |
| 20260510212216 | 92 | 0.0 | 0.0 | 0.00 | 0.00 | 0.00 | 11 | 1020.0 | |
| 20260510212117 | 91 | 0.0 | 0.0 | 0.00 | 0.00 | 0.00 | 11 | 1020.1 | |
| 20260510212016 | 91 | 0.0 | 0.0 | 0.00 | 0.00 | 0.00 | 11 | 1020.0 | |
| 20260510211918 | 91 | 0.0 | 0.0 | 0.00 | 0.00 | 0.00 | 11 | 1020.1 | |
| 20260510211817 | 92 | 0.0 | 0.0 | 0.00 | 0.00 | 0.00 | 11 | 1020.1 | |
| 20260510211718 | 92 | 0.0 | 0.0 | 0.00 | 0.00 | 0.00 | 11 | 1020.1 | |
| 20260510211617 | 92 | 0.0 | 0.0 | 0.00 | 0.00 | 0.00 | 11 | 1020.2 | |
| 20260510211516 | 92 | 0.0 | 0.0 | 0.00 | 0.00 | 0.00 | 11 | 1020.2 | |
| 20260510211416 | 92 | 0.0 | 0.0 | 0.00 | 0.00 | 0.00 | 11 | 1020.1 | |
| 20260510211338 | 92 | 0.0 | 0.0 | 0.00 | 0.00 | 0.00 | 11 | 1020.2 | |
| 20260510211216 | 92 | 0.0 | 0.0 | 0.00 | 0.00 | 0.00 | 11 | 1020.1 | |
| 20260510211116 | 91 | 0.0 | 0.0 | 0.00 | 0.00 | 0.00 | 11 | 1020.2 | |
| 20260510211016 | 91 | 0.0 | 0.0 | 0.00 | 0.00 | 0.00 | 11 | 1020.2 | |
| 20260510210916 | 91 | 0.0 | 0.0 | 0.00 | 0.00 | 0.00 | 11 | 1020.1 | |
| 20260510210838 | 91 | 0.0 | 0.0 | 0.00 | 0.00 | 0.00 | 11 | 1020.1 | |
| 20260510210716 | 91 | 0.0 | 0.0 | 0.00 | 0.00 | 0.00 | 11 | 1019.8 | |
| 20260510210616 | 91 | 0.0 | 0.0 | 0.00 | 0.00 | 0.00 | 11 | 1019.8 | |
| 20260510210537 | 91 | 0.0 | 0.0 | 0.00 | 0.00 | 0.00 | 11 | 1019.8 | |
| 20260510210416 | 91 | 0.0 | 0.0 | 0.00 | 0.00 | 0.00 | 11 | 1019.7 | |
| 20260510210316 | 91 | 0.0 | 0.0 | 0.00 | 0.00 | 0.00 | 11 | 1019.7 | |
| 20260510210216 | 91 | 0.0 | 0.0 | 0.00 | 0.00 | 0.00 | 11 | 1019.7 | |
| 20260510210116 | 91 | 0.0 | 0.0 | 0.00 | 0.00 | 0.00 | 11 | 1019.7 | |
| 20260510210016 | 91 | 0.0 | 0.0 | 0.00 | 0.00 | 0.00 | 11 | 1020.1 | |
| 20260510205916 | 91 | 0.0 | 0.0 | 0.00 | 0.00 | 0.00 | 11 | 1020.1 | |
| 20260510205816 | 91 | 0.0 | 0.0 | 0.00 | 0.00 | 0.00 | 11 | 1020.1 | |
| 20260510205717 | 91 | 0.0 | 0.0 | 0.00 | 0.00 | 0.00 | 11 | 1020.1 | |
| 20260510205616 | 91 | 0.0 | 0.0 | 0.00 | 0.00 | 0.00 | 11 | 1020.3 | |
| 20260510205538 | 91 | 0.0 | 0.0 | 0.00 | 0.00 | 0.00 | 11 | 1020.1 | |
| 20260510205439 | 91 | 0.0 | 0.0 | 0.00 | 0.00 | 0.00 | 11 | 1020.3 | |
| 20260510205316 | 92 | 0.0 | 0.0 | 0.00 | 0.00 | 0.00 | 12 | 1020.3 | |
| 20260510205216 | 92 | 0.0 | 0.0 | 0.00 | 0.00 | 0.00 | 11 | 1020.3 | |
| 20260510205117 | 92 | 0.0 | 0.0 | 0.00 | 0.00 | 0.00 | 11 | 1020.3 | |
| 20260510205038 | 92 | 0.0 | 0.0 | 0.00 | 0.00 | 0.00 | 11 | 1020.3 | |
| 20260510204917 | 92 | 0.0 | 0.0 | 0.00 | 0.00 | 0.00 | 11 | 1020.4 | |
| 20260510204822 | 92 | 0.0 | 0.0 | 0.00 | 0.00 | 0.00 | 11 | 1020.4 | |
| 20260510204717 | 91 | 0.0 | 0.0 | 0.00 | 0.00 | 0.00 | 12 | 1020.4 | |
| 20260510204616 | 91 | 0.0 | 0.0 | 0.00 | 0.00 | 0.00 | 11 | 1020.4 | |
| 20260510204536 | 91 | 0.0 | 0.0 | 0.00 | 0.00 | 0.00 | 11 | 1020.4 | |
| 20260510204416 | 92 | 0.0 | 0.0 | 0.00 | 0.00 | 0.00 | 11 | 1020.4 | |
| 20260510204337 | 91 | 0.0 | 0.0 | 0.00 | 0.00 | 0.00 | 11 | 1020.4 | |
| 20260510204216 | 91 | 0.0 | 0.0 | 0.00 | 0.00 | 0.00 | 11 | 1020.4 | |
| 20260510204117 | 91 | 0.0 | 0.0 | 0.00 | 0.00 | 0.00 | 11 | 1020.7 | |
| 20260510204017 | 91 | 0.0 | 0.0 | 0.00 | 0.00 | 0.00 | 12 | 1020.5 | |
| 20260510203916 | 91 | 0.0 | 0.0 | 0.00 | 0.00 | 0.00 | 11 | 1020.4 | |
| 20260510203857 | 91 | 0.0 | 0.0 | 0.00 | 0.00 | 0.00 | 11 | 1020.4 | |
| 20260510203716 | 91 | 0.0 | 0.0 | 0.00 | 0.00 | 0.00 | 11 | 1020.4 | |
| 20260510203616 | 91 | 0.0 | 0.0 | 0.00 | 0.00 | 0.00 | 11 | 1020.7 | |
| 20260510203516 | 91 | 0.0 | 0.0 | 0.00 | 0.00 | 0.00 | 11 | 1020.7 | |
| 20260510203416 | 91 | 0.0 | 0.0 | 0.00 | 0.00 | 0.00 | 12 | 1020.7 | |
| 20260510203316 | 92 | 0.0 | 0.0 | 0.00 | 0.00 | 0.00 | 11 | 1020.7 | |
| 20260510203216 | 92 | 0.0 | 0.0 | 0.00 | 0.00 | 0.00 | 12 | 1020.7 | |
| 20260510203136 | 92 | 0.0 | 0.0 | 0.00 | 0.00 | 0.00 | 12 | 1020.8 | |
| 20260510202952 | 92 | 0.0 | 0.0 | 0.00 | 0.00 | 0.00 | 11 | 1020.7 | |
| 20260510202837 | 93 | 0.0 | 0.0 | 0.00 | 0.00 | 0.00 | 11 | 1021.0 | |
| 20260510202716 | 93 | 0.0 | 0.0 | 0.00 | 0.00 | 0.00 | 11 | 1021.3 | |
| 20260510202616 | 93 | 0.0 | 0.0 | 0.00 | 0.00 | 0.00 | 11 | 1021.3 | |
| 20260510202516 | 93 | 0.0 | 0.0 | 0.00 | 0.00 | 0.00 | 11 | 1021.0 | |
| 20260510202418 | 92 | 0.0 | 0.0 | 0.00 | 0.00 | 0.00 | 12 | 1021.1 | |
| 20260510202316 | 92 | 0.0 | 0.0 | 0.00 | 0.00 | 0.00 | 11 | 1021.0 | |
| 20260510202217 | 92 | 0.0 | 0.0 | 0.00 | 0.00 | 0.00 | 12 | 1021.1 | |
| 20260510202116 | 92 | 0.0 | 0.0 | 0.00 | 0.00 | 0.00 | 12 | 1021.1 | |
| 20260510201951 | 92 | 0.0 | 0.0 | 0.00 | 0.00 | 0.00 | 12 | 1021.1 | |
| 20260510201949 | 92 | 0.0 | 0.0 | 0.00 | 0.00 | 0.00 | 12 | 1021.1 | |
| 20260510201817 | 92 | 0.0 | 0.0 | 0.00 | 0.00 | 0.00 | 11 | 1021.1 | |
| 20260510201717 | 92 | 0.0 | 0.0 | 0.00 | 0.00 | 0.00 | 12 | 1021.2 | |
| 20260510201637 | 92 | 0.0 | 0.0 | 0.00 | 0.00 | 0.00 | 11 | 1021.3 | |
| 20260510201516 | 92 | 0.0 | 0.0 | 0.00 | 0.00 | 0.00 | 11 | 1021.4 | |
| 20260510201418 | 93 | 0.0 | 0.0 | 0.00 | 0.00 | 0.00 | 11 | 1021.3 | |
| 20260510201316 | 93 | 0.0 | 0.0 | 0.00 | 0.00 | 0.00 | 11 | 1021.3 | |
| 20260510201236 | 93 | 0.0 | 0.0 | 0.00 | 0.00 | 0.00 | 11 | 1021.3 | |
| 20260510201116 | 93 | 0.0 | 0.0 | 0.00 | 0.00 | 0.00 | 11 | 1021.4 | |
| 20260510201016 | 93 | 0.0 | 0.0 | 0.00 | 0.00 | 0.00 | 11 | 1021.4 | |
| 20260510200916 | 93 | 0.0 | 0.0 | 0.00 | 0.00 | 0.00 | 11 | 1021.3 | |
| 20260510200818 | 93 | 0.0 | 0.0 | 0.00 | 0.00 | 0.00 | 12 | 1021.4 | |
| 20260510200717 | 93 | 0.0 | 0.0 | 0.00 | 0.00 | 0.00 | 11 | 1021.3 | |
| 20260510200657 | 93 | 0.0 | 0.0 | 0.00 | 0.00 | 0.00 | 11 | 1021.4 | |
| 20260510200536 | 93 | 0.0 | 0.0 | 0.00 | 0.00 | 0.00 | 11 | 1021.7 | |
| 20260510200417 | 94 | 0.0 | 0.0 | 0.00 | 0.00 | 0.00 | 11 | 1021.6 | |
| 20260510200317 | 94 | 0.0 | 0.0 | 0.00 | 0.00 | 0.00 | 11 | 1021.6 | |
| 20260510200216 | 94 | 0.0 | 0.0 | 0.00 | 0.00 | 0.00 | 11 | 1021.7 | |
| 20260510200116 | 94 | 0.0 | 0.0 | 0.00 | 0.00 | 0.00 | 11 | 1021.7 | |
| 20260510200016 | 95 | 0.0 | 0.0 | 0.00 | 0.00 | 0.00 | 11 | 1021.6 | |
| 20260510195918 | 95 | 0.0 | 0.0 | 0.00 | 0.00 | 0.00 | 11 | 1021.7 | |
| 20260510195817 | 94 | 0.0 | 0.0 | 0.00 | 0.00 | 0.00 | 11 | 1021.7 | |
| 20260510195716 | 94 | 0.0 | 0.0 | 0.00 | 0.00 | 0.00 | 11 | 1021.7 | |
| 20260510195617 | 94 | 0.0 | 0.0 | 0.00 | 0.00 | 0.00 | 11 | 1021.8 | |
| 20260510195516 | 94 | 0.0 | 0.0 | 0.00 | 0.00 | 0.00 | 11 | 1021.7 | |
| 20260510195417 | 94 | 0.0 | 0.0 | 0.00 | 0.00 | 0.00 | 11 | 1021.8 | |
| 20260510195316 | 94 | 0.0 | 0.0 | 0.00 | 0.00 | 0.00 | 11 | 1021.7 | |
| 20260510195216 | 94 | 0.0 | 0.0 | 0.00 | 0.00 | 0.00 | 11 | 1021.7 | |
| 20260510195116 | 94 | 0.0 | 0.0 | 0.00 | 0.00 | 0.00 | 11 | 1021.6 | |
| 20260510195017 | 94 | 0.0 | 0.0 | 0.00 | 0.00 | 0.00 | 11 | 1021.6 | |
| 20260510194916 | 94 | 0.0 | 0.0 | 0.00 | 0.00 | 0.00 | 11 | 1021.7 | |
| 20260510194837 | 93 | 0.0 | 0.0 | 0.00 | 0.00 | 0.00 | 11 | 1021.5 | |
| 20260510194716 | 93 | 0.0 | 0.0 | 0.00 | 0.00 | 0.00 | 11 | 1021.4 | |
| 20260510194616 | 93 | 0.0 | 0.0 | 0.00 | 0.00 | 0.00 | 11 | 1021.4 | |
| 20260510194536 | 92 | 0.0 | 0.0 | 0.00 | 0.00 | 0.00 | 11 | 1021.4 | |
| 20260510194427 | 92 | 0.0 | 0.0 | 0.00 | 0.00 | 0.00 | 11 | 1021.4 | |
| 20260510194336 | 93 | 0.0 | 0.0 | 0.00 | 0.00 | 0.00 | 11 | 1021.4 | |
| 20260510194216 | 93 | 0.0 | 0.0 | 0.00 | 0.00 | 0.00 | 11 | 1021.4 | |
| 20260510194137 | 92 | 0.0 | 0.0 | 0.00 | 0.00 | 0.00 | 11 | 1021.4 | |
| 20260510194016 | 92 | 0.0 | 0.0 | 0.00 | 0.00 | 0.00 | 12 | 1021.5 | |
| 20260510193918 | 92 | 0.0 | 0.0 | 0.00 | 0.00 | 0.00 | 12 | 1021.4 | |
| 20260510193816 | 93 | 0.0 | 0.0 | 0.00 | 0.00 | 0.00 | 11 | 1021.4 | |
| 20260510193716 | 93 | 0.0 | 0.0 | 0.00 | 0.00 | 0.00 | 11 | 1021.4 | |
| 20260510193616 | 93 | 0.0 | 0.0 | 0.00 | 0.00 | 0.00 | 11 | 1021.4 | |
| 20260510193516 | 92 | 0.0 | 0.0 | 0.00 | 0.00 | 0.00 | 12 | 1021.5 | |
| 20260510193416 | 92 | 0.0 | 0.0 | 0.00 | 0.00 | 0.00 | 12 | 1021.5 | |
| 20260510193316 | 91 | 0.0 | 0.0 | 0.00 | 0.00 | 0.00 | 12 | 1021.1 | |
| 20260510193216 | 91 | 0.0 | 0.0 | 0.00 | 0.00 | 0.00 | 11 | 1021.2 | |
| 20260510193117 | 92 | 0.0 | 0.0 | 0.00 | 0.00 | 0.00 | 12 | 1021.2 | |
| 20260510193016 | 92 | 0.0 | 0.0 | 0.00 | 0.00 | 0.00 | 11 | 1021.2 | |
| 20260510192917 | 92 | 0.0 | 0.0 | 0.00 | 0.00 | 0.00 | 12 | 1021.4 | |
| 20260510192838 | 93 | 0.0 | 0.0 | 0.00 | 0.00 | 0.00 | 11 | 1021.4 | |
| 20260510192716 | 93 | 0.0 | 0.0 | 0.00 | 0.00 | 0.00 | 11 | 1021.5 | |
| 20260510192636 | 93 | 0.0 | 0.0 | 0.00 | 0.00 | 0.00 | 12 | 1021.5 | |
| 20260510192516 | 93 | 0.0 | 0.0 | 0.00 | 0.00 | 0.00 | 11 | 1021.5 | |
| 20260510192438 | 93 | 0.0 | 0.0 | 0.00 | 0.00 | 0.00 | 11 | 1021.4 | |
| 20260510192318 | 93 | 0.0 | 0.0 | 0.00 | 0.00 | 0.00 | 12 | 1021.5 | |
| 20260510192216 | 93 | 0.0 | 0.0 | 0.00 | 0.00 | 0.00 | 11 | 1021.4 | |
| 20260510192117 | 93 | 0.0 | 0.0 | 0.00 | 0.00 | 0.00 | 11 | 1021.5 | |
| 20260510192016 | 93 | 0.0 | 0.0 | 0.00 | 0.00 | 0.00 | 11 | 1021.5 | |
| 20260510191916 | 93 | 0.0 | 0.0 | 0.00 | 0.00 | 0.00 | 12 | 1021.3 | |
| 20260510191816 | 93 | 0.0 | 0.0 | 0.00 | 0.00 | 0.00 | 12 | 1021.3 | |
| 20260510191716 | 93 | 0.0 | 0.0 | 0.00 | 0.00 | 0.00 | 12 | 1021.3 | |
| 20260510191617 | 93 | 0.0 | 0.0 | 0.00 | 0.00 | 0.00 | 12 | 1021.3 | |
| 20260510191516 | 93 | 0.0 | 0.0 | 0.00 | 0.00 | 0.00 | 12 | 1021.3 | |
| 20260510191437 | 92 | 0.0 | 0.0 | 0.00 | 0.00 | 0.00 | 12 | 1021.3 | |
| 20260510191316 | 92 | 0.0 | 0.0 | 0.00 | 0.00 | 0.00 | 12 | 1021.3 | |
| 20260510191216 | 91 | 0.0 | 0.0 | 0.00 | 0.00 | 0.00 | 12 | 1021.2 | |
| 20260510191157 | 91 | 0.0 | 0.0 | 0.00 | 0.00 | 0.00 | 12 | 1021.3 | |
| 20260510191017 | 91 | 0.0 | 0.0 | 0.00 | 0.00 | 0.00 | 12 | 1021.2 | |
| 20260510190917 | 92 | 0.0 | 0.0 | 0.00 | 0.00 | 0.00 | 12 | 1021.3 | |
| 20260510190816 | 92 | 0.0 | 0.0 | 0.00 | 0.00 | 0.00 | 12 | 1021.4 | |
| 20260510190716 | 92 | 0.0 | 0.0 | 0.00 | 0.00 | 0.00 | 12 | 1021.4 | |
| 20260510190616 | 92 | 0.0 | 0.0 | 0.00 | 0.00 | 0.00 | 12 | 1021.7 | |
| 20260510190516 | 92 | 0.0 | 0.0 | 0.00 | 0.00 | 0.00 | 11 | 1021.7 | |
| 20260510190416 | 93 | 0.0 | 0.0 | 0.00 | 0.00 | 0.00 | 12 | 1021.8 | |
| 20260510190316 | 92 | 0.0 | 0.0 | 0.00 | 0.00 | 0.00 | 12 | 1021.8 | |
| 20260510190237 | 92 | 0.0 | 0.0 | 0.00 | 0.00 | 0.00 | 12 | 1021.8 | |
| 20260510190116 | 92 | 0.0 | 0.0 | 0.00 | 0.00 | 0.00 | 12 | 1021.8 | |
| 20260510185950 | 92 | 0.0 | 0.0 | 0.00 | 0.00 | 0.00 | 11 | 1021.6 | |
| 20260510185816 | 93 | 0.0 | 0.0 | 0.00 | 0.00 | 0.00 | 11 | 1021.5 | |
| 20260510185716 | 93 | 0.0 | 0.0 | 0.00 | 0.00 | 0.00 | 11 | 1021.6 | |
| 20260510185616 | 93 | 0.0 | 0.0 | 0.00 | 0.00 | 0.00 | 12 | 1021.5 | |
| 20260510185456 | 92 | 0.0 | 0.0 | 0.00 | 0.00 | 0.00 | 12 | 1021.5 | |
| 20260510185316 | 92 | 0.0 | 0.0 | 0.00 | 0.00 | 0.00 | 12 | 1021.6 | |
| 20260510185217 | 92 | 0.0 | 0.0 | 0.00 | 0.00 | 0.00 | 12 | 1021.6 | |
| 20260510185136 | 92 | 0.0 | 0.0 | 0.00 | 0.00 | 0.00 | 12 | 1021.6 | |
| 20260510184954 | 92 | 0.0 | 0.0 | 0.00 | 0.00 | 0.00 | 12 | 1021.4 | |
| 20260510184816 | 92 | 0.0 | 0.0 | 0.00 | 0.00 | 0.00 | 13 | 1021.6 | |
| 20260510184716 | 91 | 0.0 | 0.0 | 0.00 | 0.00 | 0.00 | 12 | 1021.5 | |
| 20260510184616 | 91 | 0.0 | 0.0 | 0.00 | 0.00 | 0.00 | 12 | 1021.5 | |
| 20260510184516 | 91 | 0.0 | 0.0 | 0.00 | 0.00 | 0.00 | 12 | 1021.5 | |
| 20260510184417 | 91 | 0.0 | 0.0 | 0.00 | 0.00 | 0.00 | 12 | 1021.6 | |
| 20260510184316 | 91 | 0.0 | 0.0 | 0.00 | 0.00 | 0.00 | 12 | 1021.6 | |
| 20260510184236 | 91 | 0.0 | 0.0 | 0.00 | 0.00 | 0.00 | 12 | 1021.3 | |
| 20260510184136 | 91 | 0.0 | 0.0 | 0.00 | 0.00 | 0.00 | 12 | 1021.6 | |
| 20260510183955 | 91 | 0.0 | 0.0 | 0.00 | 0.00 | 0.00 | 12 | 1021.6 | |
| 20260510183816 | 91 | 0.0 | 0.0 | 0.00 | 0.00 | 0.00 | 12 | 1021.6 | |
| 20260510183716 | 91 | 0.0 | 0.0 | 0.00 | 0.00 | 0.00 | 12 | 1021.7 | |
| 20260510183658 | 91 | 0.0 | 0.0 | 0.00 | 0.00 | 0.00 | 12 | 1021.7 | |
| 20260510183514 | 91 | 0.0 | 0.0 | 0.00 | 0.00 | 0.00 | 12 | 1021.7 | |
| 20260510183316 | 92 | 0.0 | 0.0 | 0.00 | 0.00 | 0.00 | 12 | 1021.8 | |
| 20260510183237 | 92 | 0.0 | 0.0 | 0.00 | 0.00 | 0.00 | 12 | 1022.0 | |
| 20260510183158 | 92 | 0.0 | 0.0 | 0.00 | 0.00 | 0.00 | 12 | 1022.2 | |
| 20260510183017 | 92 | 0.0 | 0.0 | 0.00 | 0.00 | 0.00 | 12 | 1022.1 | |
| 20260510182916 | 92 | 0.0 | 0.0 | 0.00 | 0.00 | 0.00 | 12 | 1022.2 | |
| 20260510182816 | 92 | 0.0 | 0.0 | 0.00 | 0.00 | 0.00 | 12 | 1022.1 | |
| 20260510182737 | 92 | 0.0 | 0.0 | 0.00 | 0.00 | 0.00 | 12 | 1022.0 | |
| 20260510182617 | 92 | 0.0 | 0.0 | 0.00 | 0.00 | 0.00 | 12 | 1022.1 | |
| 20260510182516 | 92 | 0.0 | 0.0 | 0.00 | 0.00 | 0.00 | 12 | 1022.1 | |
| 20260510182416 | 92 | 0.0 | 0.0 | 0.00 | 0.00 | 0.00 | 12 | 1022.1 | |
| 20260510182316 | 92 | 0.0 | 0.0 | 0.00 | 0.00 | 0.00 | 12 | 1022.2 | |
| 20260510182256 | 92 | 0.0 | 0.0 | 0.00 | 0.00 | 0.00 | 12 | 1022.1 | |
| 20260510182117 | 92 | 0.0 | 0.0 | 0.00 | 0.00 | 0.00 | 12 | 1022.0 | |
| 20260510182005 | 92 | 0.0 | 0.0 | 0.00 | 0.00 | 0.00 | 13 | 1022.2 | |
| 20260510182003 | 92 | 0.0 | 0.0 | 0.00 | 0.00 | 0.00 | 12 | 1022.0 | |
| 20260510181816 | 92 | 0.0 | 0.0 | 0.00 | 0.00 | 0.00 | 13 | 1022.2 | |
| 20260510181736 | 92 | 0.0 | 0.0 | 0.00 | 0.00 | 0.00 | 13 | 1022.1 | |
| 20260510181616 | 92 | 0.0 | 0.0 | 0.00 | 0.00 | 0.00 | 12 | 1022.1 | |
| 20260510181541 | 91 | 0.0 | 0.0 | 0.00 | 0.00 | 0.00 | 12 | 1022.1 | |
| 20260510181519 | 91 | 0.0 | 0.0 | 0.00 | 0.00 | 0.00 | 13 | 1022.2 | |
| 20260510181316 | 92 | 0.0 | 0.0 | 0.00 | 0.00 | 0.00 | 13 | 1022.2 | |
| 20260510181216 | 92 | 0.0 | 0.0 | 0.00 | 0.00 | 0.00 | 12 | 1022.2 | |
| 20260510181117 | 91 | 0.0 | 0.0 | 0.00 | 0.00 | 0.00 | 13 | 1022.2 | |
| 20260510181016 | 91 | 0.0 | 0.0 | 0.00 | 0.00 | 0.00 | 12 | 1022.2 | |
| 20260510180917 | 92 | 0.0 | 0.0 | 0.00 | 0.00 | 0.00 | 12 | 1022.1 | |
| 20260510180816 | 92 | 0.0 | 0.0 | 0.00 | 0.00 | 0.00 | 12 | 1022.2 | |
| 20260510180716 | 92 | 0.0 | 0.0 | 0.00 | 0.00 | 0.00 | 12 | 1022.1 | |
| 20260510180616 | 91 | 0.0 | 0.0 | 0.00 | 0.00 | 0.00 | 12 | 1022.1 | |
| 20260510180453 | 91 | 0.0 | 0.0 | 0.00 | 0.00 | 0.00 | 12 | 1022.3 | |
| 20260510180316 | 91 | 0.0 | 0.0 | 0.00 | 0.00 | 0.00 | 12 | 1022.3 | |
| 20260510180216 | 91 | 0.0 | 0.0 | 0.00 | 0.00 | 0.00 | 12 | 1022.5 | |
| 20260510180136 | 91 | 0.0 | 0.0 | 0.00 | 0.00 | 0.00 | 12 | 1022.5 | |
| 20260510175954 | 91 | 0.0 | 0.0 | 0.00 | 0.00 | 0.00 | 12 | 1022.5 | |
| 20260510175816 | 91 | 0.0 | 0.0 | 0.00 | 0.00 | 0.00 | 12 | 1022.3 | |
| 20260510175716 | 91 | 0.0 | 0.0 | 0.00 | 0.00 | 0.00 | 12 | 1022.3 | |
| 20260510175654 | 91 | 0.0 | 0.0 | 0.00 | 0.00 | 0.00 | 12 | 1022.2 | |
| 20260510175633 | 91 | 0.0 | 0.0 | 0.00 | 0.00 | 0.00 | 12 | 1022.2 | |
| 20260510175631 | 90 | 0.0 | 0.0 | 0.00 | 0.00 | 0.00 | 12 | 1022.2 | |
| 20260510175317 | 90 | 0.0 | 0.0 | 0.00 | 0.00 | 0.00 | 12 | 1022.0 | |
| 20260510175216 | 90 | 0.0 | 0.0 | 0.00 | 0.00 | 0.00 | 12 | 1022.1 | |
| 20260510175116 | 90 | 0.0 | 0.0 | 0.00 | 0.00 | 0.00 | 13 | 1022.1 | |
| 20260510175036 | 90 | 0.0 | 0.0 | 0.00 | 0.00 | 0.00 | 12 | 1021.9 | |
| 20260510174917 | 90 | 0.0 | 0.0 | 0.00 | 0.00 | 0.00 | 12 | 1021.9 | |
| 20260510174816 | 90 | 0.0 | 0.0 | 0.00 | 0.00 | 0.00 | 13 | 1022.0 | |
| 20260510174716 | 90 | 0.0 | 0.0 | 0.00 | 0.00 | 0.00 | 12 | 1022.0 | |
| 20260510174616 | 90 | 0.0 | 0.0 | 0.00 | 0.00 | 0.00 | 12 | 1022.0 | |
| 20260510174517 | 90 | 0.0 | 0.0 | 0.00 | 0.00 | 0.00 | 13 | 1022.0 | |
| 20260510174417 | 90 | 0.0 | 0.0 | 0.00 | 0.00 | 0.00 | 12 | 1022.1 | |
| 20260510174316 | 90 | 0.0 | 0.0 | 0.00 | 0.00 | 0.00 | 13 | 1022.0 | |
| 20260510174216 | 89 | 0.0 | 0.0 | 0.00 | 0.00 | 0.00 | 13 | 1022.1 | |
| 20260510174116 | 89 | 0.0 | 0.0 | 0.00 | 0.00 | 0.00 | 13 | 1022.1 | |
| 20260510174024 | 89 | 0.0 | 0.0 | 0.00 | 0.00 | 0.00 | 13 | 1022.1 | |
| 20260510174022 | 89 | 0.0 | 0.0 | 0.00 | 0.00 | 0.00 | 13 | 1022.1 | |
| 20260510173816 | 89 | 0.0 | 0.0 | 0.00 | 0.00 | 0.00 | 13 | 1022.1 | |
| 20260510173716 | 89 | 0.0 | 0.0 | 0.00 | 0.00 | 0.00 | 13 | 1022.1 | |
| 20260510173616 | 89 | 0.0 | 0.0 | 0.00 | 0.00 | 0.00 | 13 | 1022.1 | |
| 20260510173516 | 89 | 0.0 | 0.0 | 0.00 | 0.00 | 0.00 | 13 | 1022.0 | |
| 20260510173416 | 89 | 0.0 | 0.0 | 0.00 | 0.00 | 0.00 | 13 | 1022.1 | |
| 20260510173316 | 89 | 0.0 | 0.0 | 0.00 | 0.00 | 0.00 | 13 | 1022.0 | |
| 20260510173216 | 89 | 0.0 | 0.0 | 0.00 | 0.00 | 0.00 | 13 | 1022.0 | |
| 20260510173157 | 88 | 0.0 | 0.0 | 0.00 | 0.00 | 0.00 | 13 | 1022.1 | |
| 20260510173036 | 88 | 0.0 | 0.0 | 0.00 | 0.00 | 0.00 | 14 | 1022.1 | |
| 20260510172917 | 88 | 0.0 | 0.0 | 0.00 | 0.00 | 0.00 | 14 | 1022.1 | |
| 20260510172837 | 88 | 0.0 | 0.0 | 0.00 | 0.00 | 0.00 | 14 | 1022.2 | |
| 20260510172716 | 88 | 0.0 | 0.0 | 0.00 | 0.00 | 0.00 | 14 | 1022.2 | |
| 20260510172616 | 88 | 0.0 | 0.0 | 0.00 | 0.00 | 0.00 | 14 | 1022.0 | |
| 20260510172516 | 88 | 0.0 | 0.0 | 0.00 | 0.00 | 0.00 | 13 | 1022.1 | |
| 20260510172418 | 88 | 0.0 | 0.0 | 0.00 | 0.00 | 0.00 | 13 | 1022.2 | |
| 20260510172316 | 88 | 0.0 | 0.0 | 0.00 | 0.00 | 0.00 | 13 | 1022.1 | |
| 20260510172216 | 88 | 0.0 | 0.0 | 0.00 | 0.00 | 0.00 | 14 | 1022.1 | |
| 20260510172136 | 88 | 0.0 | 0.0 | 0.00 | 0.00 | 0.00 | 13 | 1022.1 | |
| 20260510172016 | 89 | 0.0 | 0.0 | 0.00 | 0.00 | 0.00 | 13 | 1022.1 | |
| 20260510171916 | 89 | 0.0 | 0.0 | 0.00 | 0.00 | 0.00 | 14 | 1022.2 | |
| 20260510171816 | 89 | 0.0 | 0.0 | 0.00 | 0.00 | 0.00 | 13 | 1022.2 | |
| 20260510171716 | 89 | 0.0 | 0.0 | 0.00 | 0.00 | 0.00 | 13 | 1022.4 | |
| 20260510171617 | 89 | 0.0 | 0.0 | 0.00 | 0.00 | 0.00 | 13 | 1022.5 | |
| 20260510171536 | 89 | 0.0 | 0.0 | 0.00 | 0.00 | 0.00 | 13 | 1022.5 | |
| 20260510171416 | 89 | 0.0 | 0.0 | 0.00 | 0.00 | 0.00 | 13 | 1022.4 | |
| 20260510171318 | 89 | 0.0 | 0.0 | 0.00 | 0.00 | 0.00 | 13 | 1022.4 | |
| 20260510171217 | 89 | 0.0 | 0.0 | 0.00 | 0.00 | 0.00 | 14 | 1022.5 | |
| 20260510171116 | 89 | 0.0 | 0.0 | 0.00 | 0.00 | 0.00 | 14 | 1022.5 | |
| 20260510171016 | 89 | 0.0 | 0.0 | 0.00 | 0.00 | 0.00 | 14 | 1022.4 | |
| 20260510170916 | 89 | 0.0 | 0.0 | 0.00 | 0.00 | 0.00 | 14 | 1022.5 | |
| 20260510170816 | 89 | 0.0 | 0.0 | 0.00 | 0.00 | 0.00 | 14 | 1022.5 | |
| 20260510170716 | 89 | 0.0 | 0.0 | 0.00 | 0.00 | 0.00 | 14 | 1022.6 | |
| 20260510170616 | 88 | 0.0 | 0.0 | 0.00 | 0.00 | 0.00 | 14 | 1022.6 | |
| 20260510170517 | 88 | 0.0 | 0.0 | 0.00 | 0.00 | 0.00 | 14 | 1022.6 | |
| 20260510170416 | 88 | 0.0 | 0.0 | 0.00 | 0.00 | 0.00 | 14 | 1022.3 | |
| 20260510170316 | 88 | 0.0 | 0.0 | 0.00 | 0.00 | 0.00 | 14 | 1022.2 | |
| 20260510170216 | 88 | 0.0 | 0.0 | 0.00 | 0.00 | 0.00 | 14 | 1022.2 | |
| 20260510170116 | 88 | 0.0 | 0.0 | 0.00 | 0.00 | 0.00 | 15 | 1022.3 | |
| 20260510170017 | 88 | 0.0 | 0.0 | 0.00 | 0.00 | 0.00 | 14 | 1022.2 | |
| 20260510165937 | 88 | 0.0 | 0.0 | 0.00 | 0.00 | 0.00 | 14 | 1022.3 | |
| 20260510165817 | 88 | 0.0 | 0.0 | 0.00 | 0.00 | 0.00 | 14 | 1022.4 | |
| 20260510165716 | 88 | 0.0 | 0.0 | 0.00 | 0.00 | 0.00 | 14 | 1022.5 | |
| 20260510165616 | 88 | 0.0 | 0.0 | 0.00 | 0.00 | 0.00 | 14 | 1022.4 | |
| 20260510165516 | 88 | 0.0 | 0.0 | 0.00 | 0.00 | 0.00 | 14 | 1022.4 | |
| 20260510165416 | 88 | 0.0 | 0.0 | 0.00 | 0.00 | 0.00 | 14 | 1022.4 | |
| 20260510165318 | 88 | 0.0 | 0.0 | 0.00 | 0.00 | 0.00 | 14 | 1022.3 | |
| 20260510165216 | 88 | 0.0 | 0.0 | 0.00 | 0.00 | 0.00 | 14 | 1022.4 | |
| 20260510165116 | 88 | 0.0 | 0.0 | 0.00 | 0.00 | 0.00 | 14 | 1022.4 | |
| 20260510165016 | 88 | 0.0 | 0.0 | 0.00 | 0.00 | 0.00 | 14 | 1022.4 | |
| 20260510164916 | 88 | 0.0 | 0.0 | 0.00 | 0.00 | 0.00 | 14 | 1022.4 | |
| 20260510164816 | 88 | 0.0 | 0.0 | 0.00 | 0.00 | 0.00 | 13 | 1022.3 | |
| 20260510164717 | 88 | 0.0 | 0.0 | 0.00 | 0.00 | 0.00 | 13 | 1022.3 | |
| 20260510164616 | 89 | 0.0 | 0.0 | 0.00 | 0.00 | 0.00 | 14 | 1022.5 | |
| 20260510164516 | 89 | 0.0 | 0.0 | 0.00 | 0.00 | 0.00 | 14 | 1022.5 | |
| 20260510164416 | 89 | 0.0 | 0.0 | 0.00 | 0.00 | 0.00 | 13 | 1022.4 | |
| 20260510164339 | 89 | 0.0 | 0.0 | 0.00 | 0.00 | 0.00 | 13 | 1022.6 | |
| 20260510164217 | 89 | 0.0 | 0.0 | 0.00 | 0.00 | 0.00 | 14 | 1022.5 | |
| 20260510164115 | 88 | 0.0 | 0.0 | 0.00 | 0.00 | 0.00 | 13 | 1022.4 | |
| 20260510164016 | 89 | 0.0 | 0.0 | 0.00 | 0.00 | 0.00 | 14 | 1022.4 | |
| 20260510163938 | 88 | 0.0 | 0.0 | 0.00 | 0.00 | 0.00 | 14 | 1022.4 | |
| 20260510163816 | 88 | 0.0 | 0.0 | 0.00 | 0.00 | 0.00 | 13 | 1022.4 | |
| 20260510163717 | 88 | 0.0 | 0.0 | 0.00 | 0.00 | 0.00 | 14 | 1022.4 | |
| 20260510163657 | 88 | 0.0 | 0.0 | 0.00 | 0.00 | 0.00 | 14 | 1022.3 | |
| 20260510163517 | 88 | 0.0 | 0.0 | 0.00 | 0.00 | 0.00 | 14 | 1022.4 | |
| 20260510163416 | 88 | 0.0 | 0.0 | 0.00 | 0.00 | 0.00 | 14 | 1022.4 | |
| 20260510163336 | 88 | 0.0 | 0.0 | 0.00 | 0.00 | 0.00 | 14 | 1022.4 | |
| 20260510163216 | 88 | 0.0 | 0.0 | 0.00 | 0.00 | 0.00 | 14 | 1022.4 | |
| 20260510163138 | 88 | 0.0 | 0.0 | 0.00 | 0.00 | 0.00 | 13 | 1022.3 | |
| 20260510163016 | 88 | 0.0 | 0.0 | 0.00 | 0.00 | 0.00 | 13 | 1022.3 | |
| 20260510162917 | 88 | 0.0 | 0.0 | 0.00 | 0.00 | 0.00 | 14 | 1022.4 | |
| 20260510162817 | 88 | 0.0 | 0.0 | 0.00 | 0.00 | 0.00 | 14 | 1022.4 | |
| 20260510162717 | 88 | 0.0 | 0.0 | 0.00 | 0.00 | 0.00 | 14 | 1022.4 | |
| 20260510162616 | 87 | 0.0 | 0.0 | 0.00 | 0.00 | 0.00 | 14 | 1022.4 | |
| 20260510162516 | 87 | 0.0 | 0.0 | 0.00 | 0.00 | 0.00 | 14 | 1022.3 | |
| 20260510162437 | 87 | 0.0 | 0.0 | 0.00 | 0.00 | 0.00 | 14 | 1022.3 | |
| 20260510162317 | 88 | 0.0 | 0.0 | 0.00 | 0.00 | 0.00 | 14 | 1022.4 | |
| 20260510162216 | 88 | 0.0 | 0.0 | 0.00 | 0.00 | 0.00 | 14 | 1022.3 | |
| 20260510162117 | 87 | 0.0 | 0.0 | 0.00 | 0.00 | 0.00 | 14 | 1022.2 | |
| 20260510162037 | 87 | 0.0 | 0.0 | 0.00 | 0.00 | 0.00 | 14 | 1022.3 | |
| 20260510161916 | 87 | 0.0 | 0.0 | 0.00 | 0.00 | 0.00 | 14 | 1022.1 | |
| 20260510161816 | 87 | 0.0 | 0.0 | 0.00 | 0.00 | 0.00 | 14 | 1022.3 | |
| 20260510161736 | 87 | 0.0 | 0.0 | 0.00 | 0.00 | 0.00 | 14 | 1022.2 | |
| 20260510161616 | 87 | 0.0 | 0.0 | 0.00 | 0.00 | 0.00 | 14 | 1022.3 | |
| 20260510161518 | 86 | 0.0 | 0.0 | 0.00 | 0.00 | 0.00 | 14 | 1022.4 | |
| 20260510161516 | 86 | 0.0 | 0.0 | 0.00 | 0.00 | 0.00 | 14 | 1022.3 | |
| 20260510161316 | 86 | 0.0 | 0.0 | 0.00 | 0.00 | 0.00 | 14 | 1022.3 | |
| 20260510161236 | 86 | 0.0 | 0.0 | 0.00 | 0.00 | 0.00 | 14 | 1022.3 | |
| 20260510161116 | 86 | 0.0 | 0.0 | 0.00 | 0.00 | 0.00 | 13 | 1022.4 | |
| 20260510161016 | 86 | 0.0 | 0.0 | 0.00 | 0.00 | 0.00 | 14 | 1022.3 | |
| 20260510160916 | 86 | 0.0 | 0.0 | 0.00 | 0.00 | 0.00 | 14 | 1022.3 | |
| 20260510160817 | 86 | 0.0 | 0.0 | 0.00 | 0.00 | 0.00 | 14 | 1022.1 | |
| 20260510160717 | 86 | 0.0 | 0.0 | 0.00 | 0.00 | 0.00 | 14 | 1022.1 | |
| 20260510160636 | 86 | 0.0 | 0.0 | 0.00 | 0.00 | 0.00 | 14 | 1022.1 | |
| 20260510160537 | 86 | 0.0 | 0.0 | 0.00 | 0.00 | 0.00 | 14 | 1022.1 | |
| 20260510160457 | 85 | 0.0 | 0.0 | 0.00 | 0.00 | 0.00 | 14 | 1022.1 | |
| 20260510160316 | 85 | 0.0 | 0.0 | 0.00 | 0.00 | 0.00 | 15 | 1022.1 | |
| 20260510160216 | 85 | 0.0 | 0.0 | 0.00 | 0.00 | 0.00 | 15 | 1022.1 | |
| 20260510160116 | 85 | 0.0 | 0.0 | 0.00 | 0.00 | 0.00 | 14 | 1022.1 | |
| 20260510160016 | 85 | 0.0 | 0.0 | 0.00 | 0.00 | 0.00 | 14 | 1022.1 | |
| 20260510155917 | 86 | 0.0 | 0.0 | 0.00 | 0.00 | 0.00 | 15 | 1022.1 | |
| 20260510155816 | 85 | 0.0 | 0.0 | 0.00 | 0.00 | 0.00 | 14 | 1022.0 | |
| 20260510155717 | 85 | 0.0 | 0.0 | 0.00 | 0.00 | 0.00 | 14 | 1022.0 | |
| 20260510155616 | 85 | 0.0 | 0.0 | 0.00 | 0.00 | 0.00 | 14 | 1022.1 | |
| 20260510155517 | 85 | 0.0 | 0.0 | 0.00 | 0.00 | 0.00 | 15 | 1022.1 | |
| 20260510155416 | 85 | 0.0 | 0.0 | 0.00 | 0.00 | 0.00 | 15 | 1022.1 | |
| 20260510155316 | 84 | 0.0 | 0.0 | 0.00 | 0.00 | 0.00 | 15 | 1022.1 | |
| 20260510155216 | 84 | 0.0 | 0.0 | 0.00 | 0.00 | 0.00 | 15 | 1021.8 | |
| 20260510155116 | 84 | 0.0 | 0.0 | 0.00 | 0.00 | 0.00 | 15 | 1021.8 | |
| 20260510155016 | 84 | 0.0 | 0.0 | 0.00 | 0.00 | 0.00 | 15 | 1021.8 | |
| 20260510154956 | 84 | 0.0 | 0.0 | 0.00 | 0.00 | 0.00 | 15 | 1021.8 | |
| 20260510154816 | 84 | 0.0 | 0.0 | 0.00 | 0.00 | 0.00 | 15 | 1022.0 | |
| 20260510154736 | 84 | 0.0 | 0.0 | 0.00 | 0.00 | 0.00 | 15 | 1022.0 | |
| 20260510154616 | 84 | 0.0 | 0.0 | 0.00 | 0.00 | 0.00 | 15 | 1022.0 | |
| 20260510154516 | 83 | 0.0 | 0.0 | 0.00 | 0.00 | 0.00 | 16 | 1022.0 | |
| 20260510154417 | 83 | 0.0 | 0.0 | 0.00 | 0.00 | 0.00 | 15 | 1021.9 | |
| 20260510154316 | 83 | 0.0 | 0.0 | 0.00 | 0.00 | 0.00 | 15 | 1022.0 | |
| 20260510154217 | 83 | 0.0 | 0.0 | 0.00 | 0.00 | 0.00 | 15 | 1022.0 | |
| 20260510154157 | 83 | 0.0 | 0.0 | 0.00 | 0.00 | 0.00 | 15 | 1022.0 | |
| 20260510154036 | 83 | 0.0 | 0.0 | 0.00 | 0.00 | 0.00 | 15 | 1022.0 | |
| 20260510153916 | 83 | 0.0 | 0.0 | 0.00 | 0.00 | 0.00 | 15 | 1022.0 | |
| 20260510153817 | 83 | 0.0 | 0.0 | 0.00 | 0.00 | 0.00 | 16 | 1021.9 | |
| 20260510153716 | 83 | 0.0 | 0.0 | 0.00 | 0.00 | 0.00 | 16 | 1022.1 | |
| 20260510153636 | 83 | 0.0 | 0.0 | 0.00 | 0.00 | 0.00 | 16 | 1021.7 | |
| 20260510153516 | 83 | 0.0 | 0.0 | 0.00 | 0.00 | 0.00 | 16 | 1021.7 | |
| 20260510153417 | 83 | 0.0 | 0.0 | 0.00 | 0.00 | 0.00 | 16 | 1021.8 | |
| 20260510153316 | 83 | 0.0 | 0.0 | 0.00 | 0.00 | 0.00 | 17 | 1021.7 | |
| 20260510153216 | 82 | 0.0 | 0.0 | 0.00 | 0.00 | 0.00 | 17 | 1021.7 | |
| 20260510153117 | 82 | 0.0 | 0.0 | 0.00 | 0.00 | 0.00 | 17 | 1021.7 | |
| 20260510153016 | 82 | 0.0 | 0.0 | 0.00 | 0.00 | 0.00 | 16 | 1021.7 | |
| 20260510152938 | 82 | 0.0 | 0.0 | 0.00 | 0.00 | 0.00 | 17 | 1021.8 | |
| 20260510152859 | 81 | 0.0 | 0.0 | 0.00 | 0.00 | 0.00 | 17 | 1021.7 | |
| 20260510152716 | 81 | 0.0 | 0.0 | 0.00 | 0.00 | 0.00 | 17 | 1021.8 | |
| 20260510152616 | 81 | 0.0 | 0.0 | 0.00 | 0.00 | 0.00 | 17 | 1021.9 | |
| 20260510152516 | 81 | 0.0 | 0.0 | 0.00 | 0.00 | 0.00 | 17 | 1021.7 | |
| 20260510152416 | 81 | 0.0 | 0.0 | 0.00 | 0.00 | 0.00 | 17 | 1021.8 | |
| 20260510152316 | 81 | 0.0 | 0.0 | 0.00 | 0.00 | 0.00 | 17 | 1021.8 | |
| 20260510152215 | 81 | 0.0 | 0.0 | 0.00 | 0.00 | 0.00 | 18 | 1021.7 | |
| 20260510152117 | 81 | 0.0 | 0.0 | 0.00 | 0.00 | 0.00 | 18 | 1021.5 | |
| 20260510152016 | 81 | 0.0 | 0.0 | 0.00 | 0.00 | 0.00 | 18 | 1021.5 | |
| 20260510151917 | 81 | 0.0 | 0.0 | 0.00 | 0.00 | 0.00 | 18 | 1021.8 | |
| 20260510151836 | 80 | 0.0 | 0.0 | 0.00 | 0.00 | 0.00 | 18 | 1021.7 | |
| 20260510151717 | 80 | 0.0 | 0.0 | 0.00 | 0.00 | 0.00 | 18 | 1021.7 | |
| 20260510151616 | 80 | 0.0 | 0.0 | 0.00 | 0.00 | 0.00 | 18 | 1021.7 | |
| 20260510151516 | 80 | 0.0 | 0.0 | 0.00 | 0.00 | 0.00 | 18 | 1021.7 | |
| 20260510151436 | 80 | 0.0 | 0.0 | 0.00 | 0.00 | 0.00 | 18 | 1021.8 | |
| 20260510151316 | 80 | 0.0 | 0.0 | 0.00 | 0.00 | 0.00 | 19 | 1021.8 | |
| 20260510151257 | 80 | 0.0 | 0.0 | 0.00 | 0.00 | 0.00 | 19 | 1021.4 | |
| 20260510151116 | 80 | 0.0 | 0.0 | 0.00 | 0.00 | 0.00 | 18 | 1021.5 | |
| 20260510151016 | 80 | 0.0 | 0.0 | 0.00 | 0.00 | 0.00 | 18 | 1021.5 | |
| 20260510150916 | 80 | 0.0 | 0.0 | 0.00 | 0.00 | 0.00 | 18 | 1021.5 | |
| 20260510150838 | 80 | 0.0 | 0.0 | 0.00 | 0.00 | 0.00 | 19 | 1021.4 | |
| 20260510150717 | 80 | 0.0 | 0.0 | 0.00 | 0.00 | 0.00 | 19 | 1021.4 | |
| 20260510150636 | 80 | 0.0 | 0.0 | 0.00 | 0.00 | 0.00 | 19 | 1021.5 | |
| 20260510150516 | 80 | 0.0 | 0.0 | 0.00 | 0.00 | 0.00 | 20 | 1021.5 | |
| 20260510150417 | 80 | 0.0 | 0.0 | 0.00 | 0.00 | 0.00 | 20 | 1021.5 | |
| 20260510150316 | 80 | 0.0 | 0.0 | 0.00 | 0.00 | 0.00 | 20 | 1021.5 | |
| 20260510150217 | 80 | 0.0 | 0.0 | 0.00 | 0.00 | 0.00 | 20 | 1021.6 | |
| 20260510150116 | 79 | 0.0 | 0.0 | 0.00 | 0.00 | 0.00 | 19 | 1021.5 | |
| 20260510150036 | 79 | 0.0 | 0.0 | 0.00 | 0.00 | 0.00 | 18 | 1021.4 | |
| 20260510145917 | 79 | 0.0 | 0.0 | 0.00 | 0.00 | 0.00 | 18 | 1021.5 | |
| 20260510145816 | 79 | 0.0 | 0.0 | 0.00 | 0.00 | 0.00 | 20 | 1021.7 | |
| 20260510145715 | 79 | 0.0 | 0.0 | 0.00 | 0.00 | 0.00 | 19 | 1021.8 | |
| 20260510145615 | 79 | 0.0 | 0.0 | 0.00 | 0.00 | 0.00 | 19 | 1021.5 | |
| 20260510145517 | 79 | 0.0 | 0.0 | 0.00 | 0.00 | 0.00 | 20 | 1021.4 | |
| 20260510145416 | 79 | 0.0 | 0.0 | 0.00 | 0.00 | 0.00 | 20 | 1021.4 | |
| 20260510145316 | 79 | 0.0 | 0.0 | 0.00 | 0.00 | 0.00 | 21 | 1021.5 | |
| 20260510145216 | 78 | 0.0 | 0.0 | 0.00 | 0.00 | 0.00 | 21 | 1021.5 | |
| 20260510145117 | 78 | 0.0 | 0.0 | 0.00 | 0.00 | 0.00 | 21 | 1021.4 | |
| 20260510145016 | 78 | 0.0 | 0.0 | 0.00 | 0.00 | 0.00 | 21 | 1021.4 | |
| 20260510144916 | 78 | 0.0 | 0.0 | 0.00 | 0.00 | 0.00 | 21 | 1021.3 | |
| 20260510144816 | 78 | 0.0 | 0.0 | 0.00 | 0.00 | 0.00 | 21 | 1021.4 | |
| 20260510144716 | 78 | 0.0 | 0.0 | 0.00 | 0.00 | 0.00 | 21 | 1021.3 | |
| 20260510144617 | 78 | 0.0 | 0.0 | 0.00 | 0.00 | 0.00 | 23 | 1021.4 | |
| 20260510144556 | 78 | 0.0 | 0.0 | 0.00 | 0.00 | 0.00 | 22 | 1021.4 | |
| 20260510144416 | 78 | 0.0 | 0.0 | 0.00 | 0.00 | 0.00 | 23 | 1021.3 | |
| 20260510144316 | 78 | 0.0 | 0.0 | 0.00 | 0.00 | 0.00 | 22 | 1021.4 | |
| 20260510144236 | 78 | 0.0 | 0.0 | 0.00 | 0.00 | 0.00 | 23 | 1021.4 | |
| 20260510144116 | 77 | 0.0 | 0.0 | 0.00 | 0.00 | 0.00 | 22 | 1021.4 | |
| 20260510144016 | 77 | 0.0 | 0.0 | 0.00 | 0.00 | 0.00 | 22 | 1021.3 | |
| 20260510143916 | 77 | 0.0 | 0.0 | 0.00 | 0.00 | 0.00 | 22 | 1021.4 | |
| 20260510143816 | 77 | 0.0 | 0.0 | 0.00 | 0.00 | 0.00 | 23 | 1021.2 | |
| 20260510143736 | 77 | 0.0 | 0.0 | 0.00 | 0.00 | 0.00 | 23 | 1021.3 | |
| 20260510143616 | 77 | 0.0 | 0.0 | 0.00 | 0.00 | 0.00 | 23 | 1021.3 | |
| 20260510143516 | 76 | 0.0 | 0.0 | 0.00 | 0.00 | 0.00 | 23 | 1021.3 | |
| 20260510143416 | 76 | 0.0 | 0.0 | 0.00 | 0.00 | 0.00 | 23 | 1021.2 | |
| 20260510143316 | 76 | 0.0 | 0.0 | 0.00 | 0.00 | 0.00 | 23 | 1020.9 | |
| 20260510143241 | 76 | 0.0 | 0.0 | 0.00 | 0.00 | 0.00 | 23 | 1021.0 | |
| 20260510143239 | 76 | 0.0 | 0.0 | 0.00 | 0.00 | 0.00 | 23 | 1021.0 | |
| 20260510143016 | 76 | 0.0 | 0.0 | 0.00 | 0.00 | 0.00 | 22 | 1020.9 | |
| 20260510142916 | 76 | 0.0 | 0.0 | 0.00 | 0.00 | 0.00 | 22 | 1020.9 | |
| 20260510142817 | 76 | 0.0 | 0.0 | 0.00 | 0.00 | 0.00 | 22 | 1020.8 | |
| 20260510142716 | 76 | 0.0 | 0.0 | 0.00 | 0.00 | 0.00 | 22 | 1020.8 | |
| 20260510142616 | 76 | 0.0 | 0.0 | 0.00 | 0.00 | 0.00 | 22 | 1021.1 | |
| 20260510142516 | 77 | 0.0 | 0.0 | 0.00 | 0.00 | 0.00 | 21 | 1021.0 | |
| 20260510142416 | 77 | 0.0 | 0.0 | 0.00 | 0.00 | 0.00 | 21 | 1021.3 | |
| 20260510142316 | 78 | 0.0 | 0.0 | 0.00 | 0.00 | 0.00 | 21 | 1021.3 | |
| 20260510142215 | 78 | 0.0 | 0.0 | 0.00 | 0.00 | 0.00 | 21 | 1021.2 | |
| 20260510142116 | 79 | 0.0 | 0.0 | 0.00 | 0.00 | 0.00 | 20 | 1021.2 | |
| 20260510142016 | 80 | 0.0 | 0.0 | 0.00 | 0.00 | 0.00 | 19 | 1021.4 | |
| 20260510141917 | 80 | 0.0 | 0.0 | 0.00 | 0.00 | 0.00 | 17 | 1021.3 | |
| 20260510141817 | 80 | 0.0 | 0.0 | 0.00 | 0.00 | 0.00 | 17 | 1021.3 | |
| 20260510141716 | 80 | 0.0 | 0.0 | 0.00 | 0.00 | 0.00 | 17 | 1021.2 | |
| 20260510141615 | 79 | 0.0 | 0.0 | 0.00 | 0.00 | 0.00 | 17 | 1021.2 | |
| 20260510141515 | 79 | 0.0 | 0.0 | 0.00 | 0.00 | 0.00 | 17 | 1021.3 | |
| 20260510141416 | 79 | 0.0 | 0.0 | 0.00 | 0.00 | 0.00 | 17 | 1021.2 | |
| 20260510141321 | 79 | 0.0 | 0.0 | 0.00 | 0.00 | 0.00 | 17 | 1021.0 | |
| 20260510141216 | 79 | 0.0 | 0.0 | 0.00 | 0.00 | 0.00 | 17 | 1021.0 | |
| 20260510141117 | 79 | 0.0 | 0.0 | 0.00 | 0.00 | 0.00 | 17 | 1021.2 | |
| 20260510141015 | 79 | 0.0 | 0.0 | 0.00 | 0.00 | 0.00 | 17 | 1021.1 | |
| 20260510140916 | 79 | 0.0 | 0.0 | 0.00 | 0.00 | 0.00 | 17 | 1021.2 | |
| 20260510140816 | 78 | 0.0 | 0.0 | 0.00 | 0.00 | 0.00 | 18 | 1021.1 | |
| 20260510140736 | 78 | 0.0 | 0.0 | 0.00 | 0.00 | 0.00 | 17 | 1021.2 | |
| 20260510140617 | 78 | 0.0 | 0.0 | 0.00 | 0.00 | 0.00 | 17 | 1021.1 | |
| 20260510140516 | 78 | 0.0 | 0.0 | 0.00 | 0.00 | 0.00 | 18 | 1020.9 | |
| 20260510140416 | 78 | 0.0 | 0.0 | 0.00 | 0.00 | 0.00 | 18 | 1020.8 | |
| 20260510140316 | 78 | 0.0 | 0.0 | 0.00 | 0.00 | 0.00 | 17 | 1020.7 | |
| 20260510140216 | 78 | 0.0 | 0.0 | 0.00 | 0.00 | 0.00 | 18 | 1021.0 | |
| 20260510140116 | 77 | 0.0 | 0.0 | 0.00 | 0.00 | 0.00 | 18 | 1021.1 | |
| 20260510140015 | 77 | 0.0 | 0.0 | 0.00 | 0.00 | 0.00 | 18 | 1021.0 | |
| 20260510135916 | 77 | 0.0 | 0.0 | 0.00 | 0.00 | 0.00 | 18 | 1020.8 | |
| 20260510135816 | 77 | 0.0 | 0.0 | 0.00 | 0.00 | 0.00 | 19 | 1020.8 | |
| 20260510135716 | 76 | 0.0 | 0.0 | 0.00 | 0.00 | 0.00 | 19 | 1020.8 | |
| 20260510135616 | 76 | 0.0 | 0.0 | 0.00 | 0.00 | 0.00 | 19 | 1020.8 | |
| 20260510135515 | 76 | 0.0 | 0.0 | 0.00 | 0.00 | 0.00 | 19 | 1020.8 | |
| 20260510135416 | 76 | 0.0 | 0.0 | 0.00 | 0.00 | 0.00 | 19 | 1020.9 | |
| 20260510135337 | 76 | 0.0 | 0.0 | 0.00 | 0.00 | 0.00 | 19 | 1020.8 | |
| 20260510135236 | 76 | 0.0 | 0.0 | 0.00 | 0.00 | 0.00 | 19 | 1020.8 | |
| 20260510135117 | 76 | 0.0 | 0.0 | 0.00 | 0.00 | 0.00 | 19 | 1020.8 | |
| 20260510135036 | 76 | 0.0 | 0.0 | 0.00 | 0.00 | 0.00 | 19 | 1020.8 | |
| 20260510134916 | 76 | 0.0 | 0.0 | 0.00 | 0.00 | 0.00 | 19 | 1020.8 | |
| 20260510134837 | 75 | 0.0 | 0.0 | 0.00 | 0.00 | 0.00 | 19 | 1020.8 | |
| 20260510134717 | 75 | 0.0 | 0.0 | 0.00 | 0.00 | 0.00 | 19 | 1020.7 | |
| 20260510134617 | 75 | 0.0 | 0.0 | 0.00 | 0.00 | 0.00 | 19 | 1020.7 | |
| 20260510134515 | 75 | 0.0 | 0.0 | 0.00 | 0.00 | 0.00 | 19 | 1020.8 | |
| 20260510134416 | 75 | 0.0 | 0.0 | 0.00 | 0.00 | 0.00 | 19 | 1020.8 | |
| 20260510134316 | 75 | 0.0 | 0.0 | 0.00 | 0.00 | 0.00 | 19 | 1020.7 | |
| 20260510134215 | 74 | 0.0 | 0.0 | 0.00 | 0.00 | 0.00 | 19 | 1020.7 | |
| 20260510134117 | 74 | 0.0 | 0.0 | 0.00 | 0.00 | 0.00 | 20 | 1020.7 | |
| 20260510134017 | 74 | 0.0 | 0.0 | 0.00 | 0.00 | 0.00 | 20 | 1020.6 | |
| 20260510133916 | 74 | 0.0 | 0.0 | 0.00 | 0.00 | 0.00 | 20 | 1020.4 | |
| 20260510133816 | 73 | 0.0 | 0.0 | 0.00 | 0.00 | 0.00 | 20 | 1020.5 | |
| 20260510133717 | 73 | 0.0 | 0.0 | 0.00 | 0.00 | 0.00 | 20 | 1020.5 | |
| 20260510133616 | 73 | 0.0 | 0.0 | 0.00 | 0.00 | 0.00 | 21 | 1020.4 | |
| 20260510133516 | 73 | 0.0 | 0.0 | 0.00 | 0.00 | 0.00 | 20 | 1020.4 | |
| 20260510133502 | 72 | 0.0 | 0.0 | 0.00 | 0.00 | 0.00 | 21 | 1020.4 | |
| 20260510133440 | 72 | 0.0 | 0.0 | 0.00 | 0.00 | 0.00 | 21 | 1020.4 | |
| 20260510133216 | 72 | 0.0 | 0.0 | 0.00 | 0.00 | 0.00 | 21 | 1020.1 | |
| 20260510133116 | 72 | 0.0 | 0.0 | 0.00 | 0.00 | 0.00 | 21 | 1020.3 | |
| 20260510133015 | 71 | 0.0 | 0.0 | 0.00 | 0.00 | 0.00 | 21 | 1020.4 | |
| 20260510132916 | 71 | 0.0 | 0.0 | 0.00 | 0.00 | 0.00 | 21 | 1020.0 | |
| 20260510132816 | 71 | 0.0 | 0.0 | 0.00 | 0.00 | 0.00 | 21 | 1020.0 | |
| 20260510132715 | 70 | 0.0 | 0.0 | 0.00 | 0.00 | 0.00 | 21 | 1020.1 | |
| 20260510132616 | 70 | 0.0 | 0.0 | 0.00 | 0.00 | 0.00 | 22 | 1020.0 | |
| 20260510132516 | 70 | 0.0 | 0.0 | 0.00 | 0.00 | 0.00 | 22 | 1020.0 | |
| 20260510132417 | 70 | 0.0 | 0.0 | 0.00 | 0.00 | 0.00 | 22 | 1020.1 | |
| 20260510132337 | 69 | 0.0 | 0.0 | 0.00 | 0.00 | 0.00 | 22 | 1020.1 | |
| 20260510132217 | 69 | 0.0 | 0.0 | 0.00 | 0.00 | 0.00 | 22 | 1020.1 | |
| 20260510132117 | 69 | 0.0 | 0.0 | 0.00 | 0.00 | 0.00 | 22 | 1019.9 | |
| 20260510132015 | 69 | 0.0 | 0.0 | 0.00 | 0.00 | 0.00 | 22 | 1019.8 | |
| 20260510131916 | 68 | 0.0 | 0.0 | 0.00 | 0.00 | 0.00 | 22 | 1019.7 | |
| 20260510131816 | 68 | 0.0 | 0.0 | 0.00 | 0.00 | 0.00 | 22 | 1019.8 | |
| 20260510131717 | 68 | 0.0 | 0.0 | 0.00 | 0.00 | 0.00 | 23 | 1019.8 | |
| 20260510131617 | 68 | 0.0 | 0.0 | 0.00 | 0.00 | 0.00 | 23 | 1019.8 | |
| 20260510131516 | 67 | 0.0 | 0.0 | 0.00 | 0.00 | 0.00 | 23 | 1019.8 | |
| 20260510131437 | 67 | 0.0 | 0.0 | 0.00 | 0.00 | 0.00 | 23 | 1019.6 | |
| 20260510131316 | 67 | 0.0 | 0.0 | 0.00 | 0.00 | 0.00 | 23 | 1019.6 | |
| 20260510131215 | 67 | 0.0 | 0.0 | 0.00 | 0.00 | 0.00 | 23 | 1019.7 | |
| 20260510131116 | 66 | 0.0 | 0.0 | 0.00 | 0.00 | 0.00 | 23 | 1019.7 | |
| 20260510131016 | 66 | 0.0 | 0.0 | 0.00 | 0.00 | 0.00 | 24 | 1019.7 | |
| 20260510130916 | 66 | 0.0 | 0.0 | 0.00 | 0.00 | 0.00 | 24 | 1019.5 | |
| 20260510130817 | 66 | 0.0 | 0.0 | 0.00 | 0.00 | 0.00 | 24 | 1019.4 | |
| 20260510130716 | 66 | 0.0 | 0.0 | 0.00 | 0.00 | 0.00 | 23 | 1019.4 | |
| 20260510130636 | 66 | 0.0 | 0.0 | 0.00 | 0.00 | 0.00 | 23 | 1019.4 | |
| 20260510130516 | 66 | 0.0 | 0.0 | 0.00 | 0.00 | 0.00 | 24 | 1019.4 | |
| 20260510130416 | 66 | 0.0 | 0.0 | 0.00 | 0.00 | 0.00 | 24 | 1019.4 | |
| 20260510130316 | 66 | 0.0 | 0.0 | 0.00 | 0.00 | 0.00 | 24 | 1019.4 | |
| 20260510130216 | 66 | 0.0 | 0.0 | 0.00 | 0.00 | 0.00 | 24 | 1019.4 | |
| 20260510130116 | 66 | 0.0 | 0.0 | 0.00 | 0.00 | 0.00 | 23 | 1019.4 | |
| 20260510130037 | 66 | 0.0 | 0.0 | 0.00 | 0.00 | 0.00 | 23 | 1019.4 | |
| 20260510125917 | 66 | 0.0 | 0.0 | 0.00 | 0.00 | 0.00 | 23 | 1019.6 | |
| 20260510125816 | 66 | 0.0 | 0.0 | 0.00 | 0.00 | 0.00 | 23 | 1019.5 | |
| 20260510125717 | 66 | 0.0 | 0.0 | 0.00 | 0.00 | 0.00 | 23 | 1019.6 | |
| 20260510125637 | 66 | 0.0 | 0.0 | 0.00 | 0.00 | 0.00 | 23 | 1019.6 | |
| 20260510125537 | 66 | 0.0 | 0.0 | 0.00 | 0.00 | 0.00 | 23 | 1019.6 | |
| 20260510125417 | 67 | 0.0 | 0.0 | 0.00 | 0.00 | 0.00 | 23 | 1019.6 | |
| 20260510125317 | 67 | 0.0 | 0.0 | 0.00 | 0.00 | 0.00 | 23 | 1019.5 | |
| 20260510125216 | 67 | 0.0 | 0.0 | 0.00 | 0.00 | 0.00 | 22 | 1019.5 | |
| 20260510125117 | 67 | 0.0 | 0.0 | 0.00 | 0.00 | 0.00 | 22 | 1019.3 | |
| 20260510125017 | 67 | 0.0 | 0.0 | 0.00 | 0.00 | 0.00 | 22 | 1019.4 | |
| 20260510124916 | 67 | 0.0 | 0.0 | 0.00 | 0.00 | 0.00 | 22 | 1019.4 | |
| 20260510124816 | 67 | 0.0 | 0.0 | 0.00 | 0.00 | 0.00 | 22 | 1019.4 | |
| 20260510124757 | 67 | 0.0 | 0.0 | 0.00 | 0.00 | 0.00 | 22 | 1019.4 | |
| 20260510124636 | 67 | 0.0 | 0.0 | 0.00 | 0.00 | 0.00 | 22 | 1019.4 | |
| 20260510124535 | 67 | 0.0 | 0.0 | 0.00 | 0.00 | 0.00 | 22 | 1019.7 | |
| 20260510124416 | 67 | 0.0 | 0.0 | 0.00 | 0.00 | 0.00 | 23 | 1019.7 | |
| 20260510124316 | 68 | 0.0 | 0.0 | 0.00 | 0.00 | 0.00 | 22 | 1019.6 | |
| 20260510124237 | 68 | 0.0 | 0.0 | 0.00 | 0.00 | 0.00 | 22 | 1019.7 | |
| 20260510124116 | 68 | 0.0 | 0.0 | 0.00 | 0.00 | 0.00 | 22 | 1019.7 | |
| 20260510124037 | 68 | 0.0 | 0.0 | 0.00 | 0.00 | 0.00 | 21 | 1019.6 | |
| 20260510123916 | 69 | 0.0 | 0.0 | 0.00 | 0.00 | 0.00 | 21 | 1019.6 | |
| 20260510123816 | 69 | 0.0 | 0.0 | 0.00 | 0.00 | 0.00 | 21 | 1019.6 | |
| 20260510123737 | 69 | 0.0 | 0.0 | 0.00 | 0.00 | 0.00 | 21 | 1019.8 | |
| 20260510123615 | 69 | 0.0 | 0.0 | 0.00 | 0.00 | 0.00 | 21 | 1019.7 | |
| 20260510123515 | 70 | 0.0 | 0.0 | 0.00 | 0.00 | 0.00 | 21 | 1019.6 | |
| 20260510123417 | 70 | 0.0 | 0.0 | 0.00 | 0.00 | 0.00 | 20 | 1019.4 | |
| 20260510123316 | 70 | 0.0 | 0.0 | 0.00 | 0.00 | 0.00 | 20 | 1019.4 | |
| 20260510123217 | 70 | 0.0 | 0.0 | 0.00 | 0.00 | 0.00 | 20 | 1019.4 | |
| 20260510123136 | 70 | 0.0 | 0.0 | 0.00 | 0.00 | 0.00 | 20 | 1019.4 | |
| 20260510123015 | 70 | 0.0 | 0.0 | 0.00 | 0.00 | 0.00 | 20 | 1019.4 | |
| 20260510122916 | 70 | 0.0 | 0.0 | 0.00 | 0.00 | 0.00 | 20 | 1019.4 | |
| 20260510122816 | 70 | 0.0 | 0.0 | 0.00 | 0.00 | 0.00 | 20 | 1019.4 | |
| 20260510122716 | 70 | 0.0 | 0.0 | 0.00 | 0.00 | 0.00 | 20 | 1019.4 | |
| 20260510122617 | 70 | 0.0 | 0.0 | 0.00 | 0.00 | 0.00 | 20 | 1019.3 | |
| 20260510122516 | 70 | 0.0 | 0.0 | 0.00 | 0.00 | 0.00 | 20 | 1019.4 | |
| 20260510122416 | 70 | 0.0 | 0.0 | 0.00 | 0.00 | 0.00 | 20 | 1019.4 | |
| 20260510122316 | 70 | 0.0 | 0.0 | 0.00 | 0.00 | 0.00 | 20 | 1019.3 | |
| 20260510122215 | 70 | 0.0 | 0.0 | 0.00 | 0.00 | 0.00 | 20 | 1019.4 | |
| 20260510122118 | 70 | 0.0 | 0.0 | 0.00 | 0.00 | 0.00 | 20 | 1019.3 | |
| 20260510122116 | 70 | 0.0 | 0.0 | 0.00 | 0.00 | 0.00 | 20 | 1019.3 | |
| 20260510121916 | 70 | 0.0 | 0.0 | 0.00 | 0.00 | 0.00 | 20 | 1019.2 | |
| 20260510121815 | 70 | 0.0 | 0.0 | 0.00 | 0.00 | 0.00 | 20 | 1019.4 | |
| 20260510121738 | 70 | 0.0 | 0.0 | 0.00 | 0.00 | 0.00 | 20 | 1019.3 | |
| 20260510121616 | 70 | 0.0 | 0.0 | 0.00 | 0.00 | 0.00 | 19 | 1019.3 | |
| 20260510121516 | 70 | 0.0 | 0.0 | 0.00 | 0.00 | 0.00 | 19 | 1019.3 | |
| 20260510121416 | 70 | 0.0 | 0.0 | 0.00 | 0.00 | 0.00 | 19 | 1019.3 | |
| 20260510121317 | 70 | 0.0 | 0.0 | 0.00 | 0.00 | 0.00 | 19 | 1019.3 | |
| 20260510121215 | 70 | 0.0 | 0.0 | 0.00 | 0.00 | 0.00 | 19 | 1019.3 | |
| 20260510121115 | 70 | 0.0 | 0.0 | 0.00 | 0.00 | 0.00 | 19 | 1019.4 | |
| 20260510121016 | 70 | 0.0 | 0.0 | 0.00 | 0.00 | 0.00 | 20 | 1019.3 | |
| 20260510120916 | 70 | 0.0 | 0.0 | 0.00 | 0.00 | 0.00 | 19 | 1019.3 | |
| 20260510120816 | 70 | 0.0 | 0.0 | 0.00 | 0.00 | 0.00 | 19 | 1019.2 | |
| 20260510120716 | 70 | 0.0 | 0.0 | 0.00 | 0.00 | 0.00 | 20 | 1019.3 | |
| 20260510120636 | 70 | 0.0 | 0.0 | 0.00 | 0.00 | 0.00 | 20 | 1019.3 | |
| 20260510120516 | 69 | 0.0 | 0.0 | 0.00 | 0.00 | 0.00 | 20 | 1019.4 | |
| 20260510120416 | 69 | 0.0 | 0.0 | 0.00 | 0.00 | 0.00 | 20 | 1019.4 | |
| 20260510120316 | 69 | 0.0 | 0.0 | 0.00 | 0.00 | 0.00 | 20 | 1019.4 | |
| 20260510120217 | 69 | 0.0 | 0.0 | 0.00 | 0.00 | 0.00 | 20 | 1019.3 | |
| 20260510120116 | 69 | 0.0 | 0.0 | 0.00 | 0.00 | 0.00 | 20 | 1019.3 | |
| 20260510120016 | 69 | 0.0 | 0.0 | 0.00 | 0.00 | 0.00 | 20 | 1019.2 | |
| 20260510115916 | 69 | 0.0 | 0.0 | 0.00 | 0.00 | 0.00 | 20 | 1019.3 | |
| 20260510115815 | 69 | 0.0 | 0.0 | 0.00 | 0.00 | 0.00 | 20 | 1019.4 | |
| 20260510115715 | 69 | 0.0 | 0.0 | 0.00 | 0.00 | 0.00 | 20 | 1019.3 | |
| 20260510115616 | 69 | 0.0 | 0.0 | 0.00 | 0.00 | 0.00 | 20 | 1019.4 | |
| 20260510115517 | 69 | 0.0 | 0.0 | 0.00 | 0.00 | 0.00 | 20 | 1019.3 | |
| 20260510115416 | 69 | 0.0 | 0.0 | 0.00 | 0.00 | 0.00 | 20 | 1019.3 | |
| 20260510115315 | 69 | 0.0 | 0.0 | 0.00 | 0.00 | 0.00 | 20 | 1019.3 | |
| 20260510115216 | 68 | 0.0 | 0.0 | 0.00 | 0.00 | 0.00 | 20 | 1019.3 | |
| 20260510115137 | 68 | 0.0 | 0.0 | 0.00 | 0.00 | 0.00 | 20 | 1019.3 | |
| 20260510115016 | 68 | 0.0 | 0.0 | 0.00 | 0.00 | 0.00 | 20 | 1019.2 | |
| 20260510114916 | 68 | 0.0 | 0.0 | 0.00 | 0.00 | 0.00 | 20 | 1019.3 | |
| 20260510114836 | 68 | 0.0 | 0.0 | 0.00 | 0.00 | 0.00 | 20 | 1019.2 | |
| 20260510114716 | 68 | 0.0 | 0.0 | 0.00 | 0.00 | 0.00 | 20 | 1018.9 | |
| 20260510114615 | 68 | 0.0 | 0.0 | 0.00 | 0.00 | 0.00 | 20 | 1019.0 | |
| 20260510114515 | 68 | 0.0 | 0.0 | 0.00 | 0.00 | 0.00 | 21 | 1018.9 | |
| 20260510114416 | 67 | 0.0 | 0.0 | 0.00 | 0.00 | 0.00 | 21 | 1018.9 | |
| 20260510114317 | 67 | 0.0 | 0.0 | 0.00 | 0.00 | 0.00 | 21 | 1019.0 | |
| 20260510114217 | 66 | 0.0 | 0.0 | 0.00 | 0.00 | 0.00 | 21 | 1018.8 | |
| 20260510114115 | 66 | 0.0 | 0.0 | 0.00 | 0.00 | 0.00 | 21 | 1018.9 | |
| 20260510114015 | 66 | 0.0 | 0.0 | 0.00 | 0.00 | 0.00 | 21 | 1018.5 | |
| 20260510113917 | 66 | 0.0 | 0.0 | 0.00 | 0.00 | 0.00 | 21 | 1018.6 | |
| 20260510113816 | 66 | 0.0 | 0.0 | 0.00 | 0.00 | 0.00 | 21 | 1018.6 | |
| 20260510113717 | 66 | 0.0 | 0.0 | 0.00 | 0.00 | 0.00 | 21 | 1018.7 | |
| 20260510113637 | 66 | 0.0 | 0.0 | 0.00 | 0.00 | 0.00 | 21 | 1018.8 | |
| 20260510113557 | 66 | 0.0 | 0.0 | 0.00 | 0.00 | 0.00 | 21 | 1018.8 | |
| 20260510113416 | 67 | 0.0 | 0.0 | 0.00 | 0.00 | 0.00 | 21 | 1018.8 | |
| 20260510113317 | 67 | 0.0 | 0.0 | 0.00 | 0.00 | 0.00 | 21 | 1018.9 | |
| 20260510113216 | 67 | 0.0 | 0.0 | 0.00 | 0.00 | 0.00 | 20 | 1018.8 | |
| 20260510113115 | 67 | 0.0 | 0.0 | 0.00 | 0.00 | 0.00 | 20 | 1018.9 | |
| 20260510113015 | 67 | 0.0 | 0.0 | 0.00 | 0.00 | 0.00 | 20 | 1018.8 | |
| 20260510112917 | 67 | 0.0 | 0.0 | 0.00 | 0.00 | 0.00 | 20 | 1018.7 | |
| 20260510112836 | 67 | 0.0 | 0.0 | 0.00 | 0.00 | 0.00 | 20 | 1018.8 | |
| 20260510112717 | 67 | 0.0 | 0.0 | 0.00 | 0.00 | 0.00 | 21 | 1018.8 | |
| 20260510112616 | 67 | 0.0 | 0.0 | 0.00 | 0.00 | 0.00 | 21 | 1018.7 | |
| 20260510112536 | 67 | 0.0 | 0.0 | 0.00 | 0.00 | 0.00 | 21 | 1018.7 | |
| 20260510112437 | 67 | 0.0 | 0.0 | 0.00 | 0.00 | 0.00 | 21 | 1018.8 | |
| 20260510112316 | 67 | 0.0 | 0.0 | 0.00 | 0.00 | 0.00 | 21 | 1018.9 | |
| 20260510112217 | 67 | 0.0 | 0.0 | 0.00 | 0.00 | 0.00 | 21 | 1019.0 | |
| 20260510112115 | 67 | 0.0 | 0.0 | 0.00 | 0.00 | 0.00 | 21 | 1019.0 | |
| 20260510112058 | 67 | 0.0 | 0.0 | 0.00 | 0.00 | 0.00 | 23 | 1019.0 | |
| 20260510111916 | 68 | 0.0 | 0.0 | 0.00 | 0.00 | 0.00 | 22 | 1019.1 | |
| 20260510111816 | 68 | 0.0 | 0.0 | 0.00 | 0.00 | 0.00 | 20 | 1019.0 | |
| 20260510111735 | 68 | 0.0 | 0.0 | 0.00 | 0.00 | 0.00 | 21 | 1019.0 | |
| 20260510111615 | 68 | 0.0 | 0.0 | 0.00 | 0.00 | 0.00 | 23 | 1019.0 | |
| 20260510111517 | 68 | 0.0 | 0.0 | 0.00 | 0.00 | 0.00 | 26 | 1019.0 | |
| 20260510111436 | 68 | 0.0 | 0.0 | 0.00 | 0.00 | 0.00 | 21 | 1019.0 | |
| 20260510111335 | 68 | 0.0 | 0.0 | 0.00 | 0.00 | 0.00 | 20 | 1018.8 | |
| 20260510111217 | 68 | 0.0 | 0.0 | 0.00 | 0.00 | 0.00 | 20 | 1018.8 | |
| 20260510111115 | 69 | 0.0 | 0.0 | 0.00 | 0.00 | 0.00 | 20 | 1018.8 | |
| 20260510111015 | 69 | 0.0 | 0.0 | 0.00 | 0.00 | 0.00 | 20 | 1018.8 | |
| 20260510110936 | 69 | 0.0 | 0.0 | 0.00 | 0.00 | 0.00 | 20 | 1018.7 | |
| 20260510110815 | 69 | 0.0 | 0.0 | 0.00 | 0.00 | 0.00 | 19 | 1019.1 | |
| 20260510110717 | 69 | 0.0 | 0.0 | 0.00 | 0.00 | 0.00 | 19 | 1019.1 | |
| 20260510110635 | 69 | 0.0 | 0.0 | 0.00 | 0.00 | 0.00 | 19 | 1019.1 | |
| 20260510110537 | 69 | 0.0 | 0.0 | 0.00 | 0.00 | 0.00 | 19 | 1019.1 | |
| 20260510110417 | 70 | 0.0 | 0.0 | 0.00 | 0.00 | 0.00 | 19 | 1019.1 | |
| 20260510110315 | 70 | 0.0 | 0.0 | 0.00 | 0.00 | 0.00 | 19 | 1019.1 | |
| 20260510110215 | 70 | 0.0 | 0.0 | 0.00 | 0.00 | 0.00 | 19 | 1018.9 | |
| 20260510110115 | 70 | 0.0 | 0.0 | 0.00 | 0.00 | 0.00 | 18 | 1019.0 | |
| 20260510110015 | 70 | 0.0 | 0.0 | 0.00 | 0.00 | 0.00 | 19 | 1019.0 | |
| 20260510105916 | 70 | 0.0 | 0.0 | 0.00 | 0.00 | 0.00 | 19 | 1019.1 | |
| 20260510105856 | 70 | 0.0 | 0.0 | 0.00 | 0.00 | 0.00 | 18 | 1019.0 | |
| 20260510105715 | 70 | 0.0 | 0.0 | 0.00 | 0.00 | 0.00 | 19 | 1019.1 | |
| 20260510105636 | 70 | 0.0 | 0.0 | 0.00 | 0.00 | 0.00 | 19 | 1019.0 | |
| 20260510105515 | 69 | 0.0 | 0.0 | 0.00 | 0.00 | 0.00 | 19 | 1019.1 | |
| 20260510105416 | 69 | 0.0 | 0.0 | 0.00 | 0.00 | 0.00 | 19 | 1018.8 | |
| 20260510105337 | 69 | 0.0 | 0.0 | 0.00 | 0.00 | 0.00 | 19 | 1018.8 | |
| 20260510105215 | 69 | 0.0 | 0.0 | 0.00 | 0.00 | 0.00 | 20 | 1018.8 | |
| 20260510105117 | 69 | 0.0 | 0.0 | 0.00 | 0.00 | 0.00 | 19 | 1018.9 | |
| 20260510105015 | 69 | 0.0 | 0.0 | 0.00 | 0.00 | 0.00 | 19 | 1018.7 | |
| 20260510104937 | 69 | 0.0 | 0.0 | 0.00 | 0.00 | 0.00 | 19 | 1018.8 | |
| 20260510104817 | 69 | 0.0 | 0.0 | 0.00 | 0.00 | 0.00 | 19 | 1018.7 | |
| 20260510104715 | 69 | 0.0 | 0.0 | 0.00 | 0.00 | 0.00 | 19 | 1018.8 | |
| 20260510104637 | 69 | 0.0 | 0.0 | 0.00 | 0.00 | 0.00 | 19 | 1018.7 | |
| 20260510104515 | 69 | 0.0 | 0.0 | 0.00 | 0.00 | 0.00 | 19 | 1018.9 | |
| 20260510104416 | 69 | 0.0 | 0.0 | 0.00 | 0.00 | 0.00 | 19 | 1018.9 | |
| 20260510104315 | 69 | 0.0 | 0.0 | 0.00 | 0.00 | 0.00 | 19 | 1019.0 | |
| 20260510104236 | 69 | 0.0 | 0.0 | 0.00 | 0.00 | 0.00 | 19 | 1018.9 | |
| 20260510104116 | 69 | 0.0 | 0.0 | 0.00 | 0.00 | 0.00 | 19 | 1019.0 | |
| 20260510104017 | 70 | 0.0 | 0.0 | 0.00 | 0.00 | 0.00 | 19 | 1018.9 | |
| 20260510103916 | 70 | 0.0 | 0.0 | 0.00 | 0.00 | 0.00 | 18 | 1018.9 | |
| 20260510103815 | 70 | 0.0 | 0.0 | 0.00 | 0.00 | 0.00 | 19 | 1018.9 | |
| 20260510103715 | 70 | 0.0 | 0.0 | 0.00 | 0.00 | 0.00 | 18 | 1018.9 | |
| 20260510103635 | 70 | 0.0 | 0.0 | 0.00 | 0.00 | 0.00 | 18 | 1018.9 | |
| 20260510103515 | 70 | 0.0 | 0.0 | 0.00 | 0.00 | 0.00 | 18 | 1018.9 | |
| 20260510103416 | 70 | 0.0 | 0.0 | 0.00 | 0.00 | 0.00 | 18 | 1018.9 | |
| 20260510103316 | 70 | 0.0 | 0.0 | 0.00 | 0.00 | 0.00 | 18 | 1018.9 | |
| 20260510103217 | 70 | 0.0 | 0.0 | 0.00 | 0.00 | 0.00 | 18 | 1018.9 | |
| 20260510103136 | 70 | 0.0 | 0.0 | 0.00 | 0.00 | 0.00 | 18 | 1019.0 | |
| 20260510103015 | 70 | 0.0 | 0.0 | 0.00 | 0.00 | 0.00 | 19 | 1018.9 | |
| 20260510102936 | 70 | 0.0 | 0.0 | 0.00 | 0.00 | 0.00 | 19 | 1018.9 | |
| 20260510102836 | 70 | 0.0 | 0.0 | 0.00 | 0.00 | 0.00 | 19 | 1019.0 | |
| 20260510102715 | 70 | 0.0 | 0.0 | 0.00 | 0.00 | 0.00 | 19 | 1019.0 | |
| 20260510102615 | 70 | 0.0 | 0.0 | 0.00 | 0.00 | 0.00 | 19 | 1018.9 | |
| 20260510102516 | 70 | 0.0 | 0.0 | 0.00 | 0.00 | 0.00 | 19 | 1019.0 | |
| 20260510102415 | 70 | 0.0 | 0.0 | 0.00 | 0.00 | 0.00 | 19 | 1019.0 | |
| 20260510102335 | 70 | 0.0 | 0.0 | 0.00 | 0.00 | 0.00 | 19 | 1018.9 | |
| 20260510102215 | 69 | 0.0 | 0.0 | 0.00 | 0.00 | 0.00 | 19 | 1019.0 | |
| 20260510102115 | 69 | 0.0 | 0.0 | 0.00 | 0.00 | 0.00 | 19 | 1018.9 | |
| 20260510102017 | 69 | 0.0 | 0.0 | 0.00 | 0.00 | 0.00 | 19 | 1018.9 | |
| 20260510101936 | 69 | 0.0 | 0.0 | 0.00 | 0.00 | 0.00 | 19 | 1018.9 | |
| 20260510101835 | 69 | 0.0 | 0.0 | 0.00 | 0.00 | 0.00 | 20 | 1018.8 | |
| 20260510101735 | 69 | 0.0 | 0.0 | 0.00 | 0.00 | 0.00 | 22 | 1018.7 | |
| 20260510101615 | 69 | 0.0 | 0.0 | 0.00 | 0.00 | 0.00 | 25 | 1018.8 | |
| 20260510101515 | 69 | 0.0 | 0.0 | 0.00 | 0.00 | 0.00 | 27 | 1018.9 | |
| 20260510101416 | 69 | 0.0 | 0.0 | 0.00 | 0.00 | 0.00 | 22 | 1018.8 | |
| 20260510101315 | 69 | 0.0 | 0.0 | 0.00 | 0.00 | 0.00 | 20 | 1018.6 | |
| 20260510101258 | 69 | 0.0 | 0.0 | 0.00 | 0.00 | 0.00 | 19 | 1018.7 | |
| 20260510101116 | 69 | 0.0 | 0.0 | 0.00 | 0.00 | 0.00 | 19 | 1018.6 | |
| 20260510101016 | 69 | 0.0 | 0.0 | 0.00 | 0.00 | 0.00 | 20 | 1018.6 | |
| 20260510100937 | 69 | 0.0 | 0.0 | 0.00 | 0.00 | 0.00 | 19 | 1018.5 | |
| 20260510100816 | 69 | 0.0 | 0.0 | 0.00 | 0.00 | 0.00 | 20 | 1018.7 | |
| 20260510100715 | 69 | 0.0 | 0.0 | 0.00 | 0.00 | 0.00 | 19 | 1018.5 | |
| 20260510100615 | 69 | 0.0 | 0.0 | 0.00 | 0.00 | 0.00 | 19 | 1018.6 | |
| 20260510100516 | 69 | 0.0 | 0.0 | 0.00 | 0.00 | 0.00 | 19 | 1018.5 | |
| 20260510100416 | 69 | 0.0 | 0.0 | 0.00 | 0.00 | 0.00 | 19 | 1018.5 | |
| 20260510100315 | 69 | 0.0 | 0.0 | 0.00 | 0.00 | 0.00 | 19 | 1018.7 | |
| 20260510100215 | 69 | 0.0 | 0.0 | 0.00 | 0.00 | 0.00 | 19 | 1018.8 | |
| 20260510100115 | 69 | 0.0 | 0.0 | 0.00 | 0.00 | 0.00 | 19 | 1018.7 | |
| 20260510100015 | 69 | 0.0 | 0.0 | 0.00 | 0.00 | 0.00 | 19 | 1018.7 | |
| 20260510095916 | 69 | 0.0 | 0.0 | 0.00 | 0.00 | 0.00 | 19 | 1018.7 | |
| 20260510095815 | 70 | 0.0 | 0.0 | 0.00 | 0.00 | 0.00 | 19 | 1018.4 | |
| 20260510095738 | 70 | 0.0 | 0.0 | 0.00 | 0.00 | 0.00 | 19 | 1018.5 | |
| 20260510095615 | 70 | 0.0 | 0.0 | 0.00 | 0.00 | 0.00 | 19 | 1018.5 | |
| 20260510095516 | 70 | 0.0 | 0.0 | 0.00 | 0.00 | 0.00 | 18 | 1018.7 | |
| 20260510095417 | 70 | 0.0 | 0.0 | 0.00 | 0.00 | 0.00 | 18 | 1018.7 | |
| 20260510095316 | 71 | 0.0 | 0.0 | 0.00 | 0.00 | 0.00 | 18 | 1018.7 | |
| 20260510095215 | 71 | 0.0 | 0.0 | 0.00 | 0.00 | 0.00 | 18 | 1018.7 | |
| 20260510095115 | 71 | 0.0 | 0.0 | 0.00 | 0.00 | 0.00 | 18 | 1018.9 | |
| 20260510095015 | 72 | 0.0 | 0.0 | 0.00 | 0.00 | 0.00 | 18 | 1018.8 | |
| 20260510094915 | 72 | 0.0 | 0.0 | 0.00 | 0.00 | 0.00 | 17 | 1018.9 | |
| 20260510094816 | 72 | 0.0 | 0.0 | 0.00 | 0.00 | 0.00 | 17 | 1018.9 | |
| 20260510094735 | 73 | 0.0 | 0.0 | 0.00 | 0.00 | 0.00 | 17 | 1018.9 | |
| 20260510094615 | 73 | 0.0 | 0.0 | 0.00 | 0.00 | 0.00 | 17 | 1018.9 | |
| 20260510094515 | 73 | 0.0 | 0.0 | 0.00 | 0.00 | 0.00 | 17 | 1018.9 | |
| 20260510094456 | 73 | 0.0 | 0.0 | 0.00 | 0.00 | 0.00 | 17 | 1018.9 | |
| 20260510094317 | 73 | 0.0 | 0.0 | 0.00 | 0.00 | 0.00 | 17 | 1018.9 | |
| 20260510094216 | 73 | 0.0 | 0.0 | 0.00 | 0.00 | 0.00 | 17 | 1018.9 | |
| 20260510094115 | 73 | 0.0 | 0.0 | 0.00 | 0.00 | 0.00 | 17 | 1019.3 | |
| 20260510094015 | 73 | 0.0 | 0.0 | 0.00 | 0.00 | 0.00 | 17 | 1018.9 | |
| 20260510093916 | 73 | 0.0 | 0.0 | 0.00 | 0.00 | 0.00 | 17 | 1018.8 | |
| 20260510093835 | 73 | 0.0 | 0.0 | 0.00 | 0.00 | 0.00 | 17 | 1019.3 | |
| 20260510093715 | 73 | 0.0 | 0.0 | 0.00 | 0.00 | 0.00 | 17 | 1018.9 | |
| 20260510093616 | 73 | 0.0 | 0.0 | 0.00 | 0.00 | 0.00 | 17 | 1018.9 | |
| 20260510093536 | 73 | 0.0 | 0.0 | 0.00 | 0.00 | 0.00 | 17 | 1019.0 | |
| 20260510093416 | 73 | 0.0 | 0.0 | 0.00 | 0.00 | 0.00 | 17 | 1019.3 | |
| 20260510093316 | 73 | 0.0 | 0.0 | 0.00 | 0.00 | 0.00 | 17 | 1019.1 | |
| 20260510093215 | 73 | 0.0 | 0.0 | 0.00 | 0.00 | 0.00 | 17 | 1019.1 | |
| 20260510093135 | 73 | 0.0 | 0.0 | 0.00 | 0.00 | 0.00 | 17 | 1018.9 | |
| 20260510093015 | 73 | 0.0 | 0.0 | 0.00 | 0.00 | 0.00 | 17 | 1018.8 | |
| 20260510092916 | 73 | 0.0 | 0.0 | 0.00 | 0.00 | 0.00 | 17 | 1018.8 | |
| 20260510092815 | 73 | 0.0 | 0.0 | 0.00 | 0.00 | 0.00 | 17 | 1019.1 | |
| 20260510092715 | 73 | 0.0 | 0.0 | 0.00 | 0.00 | 0.00 | 17 | 1018.9 | |
| 20260510092615 | 73 | 0.0 | 0.0 | 0.00 | 0.00 | 0.00 | 17 | 1018.9 | |
| 20260510092515 | 73 | 0.0 | 0.0 | 0.00 | 0.00 | 0.00 | 17 | 1018.8 | |
| 20260510092416 | 72 | 0.0 | 0.0 | 0.00 | 0.00 | 0.00 | 17 | 1018.7 | |
| 20260510092315 | 72 | 0.0 | 0.0 | 0.00 | 0.00 | 0.00 | 17 | 1018.9 | |
| 20260510092215 | 72 | 0.0 | 0.0 | 0.00 | 0.00 | 0.00 | 17 | 1018.9 | |
| 20260510092116 | 72 | 0.0 | 0.0 | 0.00 | 0.00 | 0.00 | 17 | 1018.9 | |
| 20260510092015 | 72 | 0.0 | 0.0 | 0.00 | 0.00 | 0.00 | 18 | 1018.9 | |
| 20260510091936 | 72 | 0.0 | 0.0 | 0.00 | 0.00 | 0.00 | 18 | 1018.9 | |
| 20260510091817 | 72 | 0.0 | 0.0 | 0.00 | 0.00 | 0.00 | 18 | 1019.0 | |
| 20260510091736 | 72 | 0.0 | 0.0 | 0.00 | 0.00 | 0.00 | 18 | 1019.0 | |
| 20260510091615 | 72 | 0.0 | 0.0 | 0.00 | 0.00 | 0.00 | 18 | 1019.0 | |
| 20260510091516 | 72 | 0.0 | 0.0 | 0.00 | 0.00 | 0.00 | 17 | 1018.8 | |
| 20260510091415 | 72 | 0.0 | 0.0 | 0.00 | 0.00 | 0.00 | 17 | 1018.8 | |
| 20260510091315 | 72 | 0.0 | 0.0 | 0.00 | 0.00 | 0.00 | 17 | 1018.7 | |
| 20260510091216 | 72 | 0.0 | 0.0 | 0.00 | 0.00 | 0.00 | 17 | 1018.7 | |
| 20260510091115 | 72 | 0.0 | 0.0 | 0.00 | 0.00 | 0.00 | 17 | 1018.6 | |
| 20260510091016 | 72 | 0.0 | 0.0 | 0.00 | 0.00 | 0.00 | 17 | 1018.6 | |
| 20260510090916 | 72 | 0.0 | 0.0 | 0.00 | 0.00 | 0.00 | 17 | 1018.7 | |
| 20260510090837 | 72 | 0.0 | 0.0 | 0.00 | 0.00 | 0.00 | 17 | 1018.5 | |
| 20260510090715 | 72 | 0.0 | 0.0 | 0.00 | 0.00 | 0.00 | 18 | 1018.5 | |
| 20260510090615 | 72 | 0.0 | 0.0 | 0.00 | 0.00 | 0.00 | 17 | 1018.3 | |
| 20260510090515 | 72 | 0.0 | 0.0 | 0.00 | 0.00 | 0.00 | 18 | 1018.5 | |
| 20260510090415 | 72 | 0.0 | 0.0 | 0.00 | 0.00 | 0.00 | 18 | 1018.5 | |
| 20260510090316 | 72 | 0.0 | 0.0 | 0.00 | 0.00 | 0.00 | 18 | 1018.5 | |
| 20260510090215 | 72 | 0.0 | 0.0 | 0.00 | 0.00 | 0.00 | 18 | 1018.5 | |
| 20260510090115 | 72 | 0.0 | 0.0 | 0.00 | 0.00 | 0.00 | 18 | 1018.7 | |
| 20260510090015 | 72 | 0.0 | 0.0 | 0.00 | 0.00 | 0.00 | 18 | 1018.4 | |
| 20260510085916 | 72 | 0.0 | 0.0 | 0.00 | 0.00 | 0.00 | 18 | 1018.8 | |
| 20260510085817 | 72 | 0.0 | 0.0 | 0.00 | 0.00 | 0.00 | 18 | 1018.7 | |
| 20260510085715 | 72 | 0.0 | 0.0 | 0.00 | 0.00 | 0.00 | 18 | 1018.7 | |
| 20260510085615 | 73 | 0.0 | 0.0 | 0.00 | 0.00 | 0.00 | 17 | 1018.7 | |
| 20260510085515 | 73 | 0.0 | 0.0 | 0.00 | 0.00 | 0.00 | 17 | 1018.6 | |
| 20260510085436 | 73 | 0.0 | 0.0 | 0.00 | 0.00 | 0.00 | 17 | 1018.4 | |
| 20260510085337 | 73 | 0.0 | 0.0 | 0.00 | 0.00 | 0.00 | 17 | 1018.6 | |
| 20260510085216 | 73 | 0.0 | 0.0 | 0.00 | 0.00 | 0.00 | 17 | 1018.5 | |
| 20260510085115 | 73 | 0.0 | 0.0 | 0.00 | 0.00 | 0.00 | 17 | 1018.6 | |
| 20260510085015 | 73 | 0.0 | 0.0 | 0.00 | 0.00 | 0.00 | 17 | 1018.5 | |
| 20260510084935 | 73 | 0.0 | 0.0 | 0.00 | 0.00 | 0.00 | 17 | 1018.2 | |
| 20260510084815 | 73 | 0.0 | 0.0 | 0.00 | 0.00 | 0.00 | 17 | 1018.2 | |
| 20260510084715 | 73 | 0.0 | 0.0 | 0.00 | 0.00 | 0.00 | 17 | 1018.3 | |
| 20260510084615 | 73 | 0.0 | 0.0 | 0.00 | 0.00 | 0.00 | 17 | 1018.5 | |
| 20260510084516 | 73 | 0.0 | 0.0 | 0.00 | 0.00 | 0.00 | 17 | 1018.4 | |
| 20260510084417 | 73 | 0.0 | 0.0 | 0.00 | 0.00 | 0.00 | 17 | 1018.5 | |
| 20260510084315 | 73 | 0.0 | 0.0 | 0.00 | 0.00 | 0.00 | 17 | 1018.4 | |
| 20260510084216 | 73 | 0.0 | 0.0 | 0.00 | 0.00 | 0.00 | 17 | 1018.3 | |
| 20260510084115 | 73 | 0.0 | 0.0 | 0.00 | 0.00 | 0.00 | 17 | 1018.4 | |
| 20260510084015 | 73 | 0.0 | 0.0 | 0.00 | 0.00 | 0.00 | 17 | 1018.7 | |
| 20260510083937 | 73 | 0.0 | 0.0 | 0.00 | 0.00 | 0.00 | 17 | 1018.7 | |
| 20260510083815 | 73 | 0.0 | 0.0 | 0.00 | 0.00 | 0.00 | 16 | 1018.6 | |
| 20260510083715 | 73 | 0.0 | 0.0 | 0.00 | 0.00 | 0.00 | 16 | 1018.7 | |
| 20260510083617 | 73 | 0.0 | 0.0 | 0.00 | 0.00 | 0.00 | 16 | 1018.7 | |
| 20260510083515 | 73 | 0.0 | 0.0 | 0.00 | 0.00 | 0.00 | 16 | 1018.6 | |
| 20260510083415 | 74 | 0.0 | 0.0 | 0.00 | 0.00 | 0.00 | 16 | 1018.6 | |
| 20260510083315 | 74 | 0.0 | 0.0 | 0.00 | 0.00 | 0.00 | 16 | 1018.6 | |
| 20260510083215 | 74 | 0.0 | 0.0 | 0.00 | 0.00 | 0.00 | 16 | 1018.7 | |
| 20260510083115 | 74 | 0.0 | 0.0 | 0.00 | 0.00 | 0.00 | 16 | 1018.7 | |
| 20260510083016 | 74 | 0.0 | 0.0 | 0.00 | 0.00 | 0.00 | 16 | 1018.6 | |
| 20260510082956 | 74 | 0.0 | 0.0 | 0.00 | 0.00 | 0.00 | 16 | 1018.7 | |
| 20260510082816 | 75 | 0.0 | 0.0 | 0.00 | 0.00 | 0.00 | 16 | 1018.7 | |
| 20260510082715 | 75 | 0.0 | 0.0 | 0.00 | 0.00 | 0.00 | 15 | 1018.7 | |
| 20260510082615 | 75 | 0.0 | 0.0 | 0.00 | 0.00 | 0.00 | 15 | 1019.0 | |
| 20260510082517 | 76 | 0.0 | 0.0 | 0.00 | 0.00 | 0.00 | 15 | 1019.0 | |
| 20260510082417 | 76 | 0.0 | 0.0 | 0.00 | 0.00 | 0.00 | 15 | 1019.0 | |
| 20260510082315 | 76 | 0.0 | 0.0 | 0.00 | 0.00 | 0.00 | 15 | 1018.8 | |
| 20260510082215 | 76 | 0.0 | 0.0 | 0.00 | 0.00 | 0.00 | 15 | 1018.7 | |
| 20260510082115 | 76 | 0.0 | 0.0 | 0.00 | 0.00 | 0.00 | 15 | 1019.0 | |
| 20260510082015 | 76 | 0.0 | 0.0 | 0.00 | 0.00 | 0.00 | 14 | 1019.1 | |
| 20260510081915 | 76 | 0.0 | 0.0 | 0.00 | 0.00 | 0.00 | 14 | 1019.0 | |
| 20260510081815 | 76 | 0.0 | 0.0 | 0.00 | 0.00 | 0.00 | 14 | 1019.1 | |
| 20260510081715 | 76 | 0.0 | 0.0 | 0.00 | 0.00 | 0.00 | 14 | 1019.0 | |
| 20260510081615 | 76 | 0.0 | 0.0 | 0.00 | 0.00 | 0.00 | 14 | 1019.0 | |
| 20260510081515 | 76 | 0.0 | 0.0 | 0.00 | 0.00 | 0.00 | 14 | 1019.0 | |
| 20260510081435 | 77 | 0.0 | 0.0 | 0.00 | 0.00 | 0.00 | 14 | 1019.1 | |
| 20260510081315 | 77 | 0.0 | 0.0 | 0.00 | 0.00 | 0.00 | 14 | 1019.1 | |
| 20260510081215 | 77 | 0.0 | 0.0 | 0.00 | 0.00 | 0.00 | 14 | 1019.0 | |
| 20260510081135 | 77 | 0.0 | 0.0 | 0.00 | 0.00 | 0.00 | 14 | 1019.1 | |
| 20260510081016 | 77 | 0.0 | 0.0 | 0.00 | 0.00 | 0.00 | 14 | 1019.1 | |
| 20260510080915 | 77 | 0.0 | 0.0 | 0.00 | 0.00 | 0.00 | 14 | 1019.1 | |
| 20260510080815 | 77 | 0.0 | 0.0 | 0.00 | 0.00 | 0.00 | 14 | 1019.0 | |
| 20260510080715 | 77 | 0.0 | 0.0 | 0.00 | 0.00 | 0.00 | 14 | 1019.2 | |
| 20260510080615 | 77 | 0.0 | 0.0 | 0.00 | 0.00 | 0.00 | 14 | 1019.0 | |
| 20260510080515 | 77 | 0.0 | 0.0 | 0.00 | 0.00 | 0.00 | 14 | 1019.1 | |
| 20260510080416 | 77 | 0.0 | 0.0 | 0.00 | 0.00 | 0.00 | 14 | 1018.9 | |
| 20260510080216 | 77 | 0.0 | 0.0 | 0.00 | 0.00 | 0.00 | 14 | 1019.0 | |
| 20260510080115 | 78 | 0.0 | 0.0 | 0.00 | 0.00 | 0.00 | 14 | 1019.0 | |
| 20260510080015 | 77 | 0.0 | 0.0 | 0.00 | 0.00 | 0.00 | 14 | 1019.1 | |
| 20260510075916 | 77 | 0.0 | 0.0 | 0.00 | 0.00 | 0.00 | 14 | 1018.7 | |
| 20260510075815 | 77 | 0.0 | 0.0 | 0.00 | 0.00 | 0.00 | 14 | 1018.7 | |
| 20260510075715 | 77 | 0.0 | 0.0 | 0.00 | 0.00 | 0.00 | 14 | 1018.7 | |
| 20260510075616 | 77 | 0.0 | 0.0 | 0.00 | 0.00 | 0.00 | 14 | 1019.0 | |
| 20260510075515 | 77 | 0.0 | 0.0 | 0.00 | 0.00 | 0.00 | 14 | 1018.7 | |
| 20260510075416 | 77 | 0.0 | 0.0 | 0.00 | 0.00 | 0.00 | 14 | 1019.0 | |
| 20260510075315 | 77 | 0.0 | 0.0 | 0.00 | 0.00 | 0.00 | 14 | 1019.0 | |
| 20260510075215 | 77 | 0.0 | 0.0 | 0.00 | 0.00 | 0.00 | 14 | 1018.9 | |
| 20260510075115 | 77 | 0.0 | 0.0 | 0.00 | 0.00 | 0.00 | 14 | 1018.9 | |
| 20260510075015 | 76 | 0.0 | 0.0 | 0.00 | 0.00 | 0.00 | 14 | 1018.9 | |
| 20260510074915 | 76 | 0.0 | 0.0 | 0.00 | 0.00 | 0.00 | 14 | 1018.7 | |
| 20260510074815 | 76 | 0.0 | 0.0 | 0.00 | 0.00 | 0.00 | 14 | 1018.7 | |
| 20260510074715 | 76 | 0.0 | 0.0 | 0.00 | 0.00 | 0.00 | 15 | 1018.7 | |
| 20260510074616 | 76 | 0.0 | 0.0 | 0.00 | 0.00 | 0.00 | 14 | 1018.6 | |
| 20260510074515 | 76 | 0.0 | 0.0 | 0.00 | 0.00 | 0.00 | 14 | 1018.6 | |
| 20260510074415 | 76 | 0.0 | 0.0 | 0.00 | 0.00 | 0.00 | 15 | 1018.7 | |
| 20260510074315 | 76 | 0.0 | 0.0 | 0.00 | 0.00 | 0.00 | 15 | 1018.8 | |
| 20260510074238 | 76 | 0.0 | 0.0 | 0.00 | 0.00 | 0.00 | 15 | 1018.7 | |
| 20260510074115 | 76 | 0.0 | 0.0 | 0.00 | 0.00 | 0.00 | 15 | 1018.4 | |
| 20260510074015 | 76 | 0.0 | 0.0 | 0.00 | 0.00 | 0.00 | 14 | 1018.5 | |
| 20260510073937 | 76 | 0.0 | 0.0 | 0.00 | 0.00 | 0.00 | 15 | 1018.5 | |
| 20260510073815 | 76 | 0.0 | 0.0 | 0.00 | 0.00 | 0.00 | 15 | 1018.5 | |
| 20260510073715 | 75 | 0.0 | 0.0 | 0.00 | 0.00 | 0.00 | 15 | 1018.5 | |
| 20260510073615 | 75 | 0.0 | 0.0 | 0.00 | 0.00 | 0.00 | 15 | 1018.5 | |
| 20260510073515 | 75 | 0.0 | 0.0 | 0.00 | 0.00 | 0.00 | 15 | 1018.6 | |
| 20260510073415 | 75 | 0.0 | 0.0 | 0.00 | 0.00 | 0.00 | 15 | 1018.6 | |
| 20260510073315 | 75 | 0.0 | 0.0 | 0.00 | 0.00 | 0.00 | 15 | 1018.6 | |
| 20260510073215 | 75 | 0.0 | 0.0 | 0.00 | 0.00 | 0.00 | 15 | 1018.6 | |
| 20260510073116 | 75 | 0.0 | 0.0 | 0.00 | 0.00 | 0.00 | 15 | 1018.6 | |
| 20260510073016 | 75 | 0.0 | 0.0 | 0.00 | 0.00 | 0.00 | 15 | 1018.6 | |
| 20260510072916 | 75 | 0.0 | 0.0 | 0.00 | 0.00 | 0.00 | 15 | 1018.6 | |
| 20260510072815 | 75 | 0.0 | 0.0 | 0.00 | 0.00 | 0.00 | 15 | 1018.6 | |
| 20260510072715 | 75 | 0.0 | 0.0 | 0.00 | 0.00 | 0.00 | 15 | 1018.7 | |
| 20260510072615 | 74 | 0.0 | 0.0 | 0.00 | 0.00 | 0.00 | 15 | 1018.7 | |
| 20260510072515 | 74 | 0.0 | 0.0 | 0.00 | 0.00 | 0.00 | 15 | 1018.7 | |
| 20260510072417 | 74 | 0.0 | 0.0 | 0.00 | 0.00 | 0.00 | 15 | 1018.7 | |
| 20260510072316 | 74 | 0.0 | 0.0 | 0.00 | 0.00 | 0.00 | 15 | 1018.5 | |
| 20260510072215 | 74 | 0.0 | 0.0 | 0.00 | 0.00 | 0.00 | 15 | 1018.5 | |
| 20260510072115 | 74 | 0.0 | 0.0 | 0.00 | 0.00 | 0.00 | 15 | 1018.5 | |
| 20260510072015 | 74 | 0.0 | 0.0 | 0.00 | 0.00 | 0.00 | 16 | 1018.6 | |
| 20260510071916 | 73 | 0.0 | 0.0 | 0.00 | 0.00 | 0.00 | 16 | 1018.6 | |
| 20260510071815 | 73 | 0.0 | 0.0 | 0.00 | 0.00 | 0.00 | 16 | 1018.6 | |
| 20260510071715 | 73 | 0.0 | 0.0 | 0.00 | 0.00 | 0.00 | 16 | 1018.6 | |
| 20260510071615 | 73 | 0.0 | 0.0 | 0.00 | 0.00 | 0.00 | 16 | 1018.8 | |
| 20260510071515 | 73 | 0.0 | 0.0 | 0.00 | 0.00 | 0.00 | 16 | 1018.5 | |
| 20260510071436 | 73 | 0.0 | 0.0 | 0.00 | 0.00 | 0.00 | 16 | 1018.6 | |
| 20260510071315 | 74 | 0.0 | 0.0 | 0.00 | 0.00 | 0.00 | 16 | 1018.6 | |
| 20260510071215 | 74 | 0.0 | 0.0 | 0.00 | 0.00 | 0.00 | 15 | 1018.5 | |
| 20260510071115 | 74 | 0.0 | 0.0 | 0.00 | 0.00 | 0.00 | 15 | 1018.5 | |
| 20260510071015 | 74 | 0.0 | 0.0 | 0.00 | 0.00 | 0.00 | 15 | 1018.5 | |
| 20260510070935 | 74 | 0.0 | 0.0 | 0.00 | 0.00 | 0.00 | 15 | 1018.5 | |
| 20260510070815 | 74 | 0.0 | 0.0 | 0.00 | 0.00 | 0.00 | 15 | 1018.5 | |
| 20260510070715 | 74 | 0.0 | 0.0 | 0.00 | 0.00 | 0.00 | 15 | 1018.5 | |
| 20260510070615 | 74 | 0.0 | 0.0 | 0.00 | 0.00 | 0.00 | 15 | 1018.6 | |
| 20260510070515 | 74 | 0.0 | 0.0 | 0.00 | 0.00 | 0.00 | 15 | 1018.6 | |
| 20260510070415 | 74 | 0.0 | 0.0 | 0.00 | 0.00 | 0.00 | 15 | 1018.5 | |
| 20260510070316 | 74 | 0.0 | 0.0 | 0.00 | 0.00 | 0.00 | 15 | 1018.5 | |
| 20260510070215 | 74 | 0.0 | 0.0 | 0.00 | 0.00 | 0.00 | 15 | 1018.5 | |
| 20260510070115 | 74 | 0.0 | 0.0 | 0.00 | 0.00 | 0.00 | 15 | 1018.5 | |
| 20260510070017 | 74 | 0.0 | 0.0 | 0.00 | 0.00 | 0.00 | 15 | 1018.5 | |
| 20260510065918 | 74 | 0.0 | 0.0 | 0.00 | 0.00 | 0.00 | 15 | 1018.5 | |
| 20260510065817 | 74 | 0.0 | 0.0 | 0.00 | 0.00 | 0.00 | 15 | 1018.2 | |
| 20260510065716 | 74 | 0.0 | 0.0 | 0.00 | 0.00 | 0.00 | 15 | 1018.2 | |
| 20260510065618 | 74 | 0.0 | 0.0 | 0.00 | 0.00 | 0.00 | 15 | 1018.5 | |
| 20260510065517 | 74 | 0.0 | 0.0 | 0.00 | 0.00 | 0.00 | 15 | 1018.5 | |
| 20260510065417 | 74 | 0.0 | 0.0 | 0.00 | 0.00 | 0.00 | 15 | 1018.5 | |
| 20260510065317 | 73 | 0.0 | 0.0 | 0.00 | 0.00 | 0.00 | 15 | 1018.4 | |
| 20260510065217 | 73 | 0.0 | 0.0 | 0.00 | 0.00 | 0.00 | 15 | 1018.2 | |
| 20260510065118 | 73 | 0.0 | 0.0 | 0.00 | 0.00 | 0.00 | 15 | 1018.2 | |
| 20260510065017 | 73 | 0.0 | 0.0 | 0.00 | 0.00 | 0.00 | 15 | 1018.2 | |
| 20260510064938 | 73 | 0.0 | 0.0 | 0.00 | 0.00 | 0.00 | 15 | 1018.2 | |
| 20260510064817 | 73 | 0.0 | 0.0 | 0.00 | 0.00 | 0.00 | 15 | 1018.2 | |
| 20260510064738 | 73 | 0.0 | 0.0 | 0.00 | 0.00 | 0.00 | 15 | 1018.1 | |
| 20260510064616 | 73 | 0.0 | 0.0 | 0.00 | 0.00 | 0.00 | 15 | 1018.2 | |
| 20260510064517 | 73 | 0.0 | 0.0 | 0.00 | 0.00 | 0.00 | 15 | 1018.2 | |
| 20260510064418 | 73 | 0.0 | 0.0 | 0.00 | 0.00 | 0.00 | 15 | 1018.2 | |
| 20260510064337 | 73 | 0.0 | 0.0 | 0.00 | 0.00 | 0.00 | 15 | 1018.2 | |
| 20260510064217 | 74 | 0.0 | 0.0 | 0.00 | 0.00 | 0.00 | 15 | 1018.2 | |
| 20260510064118 | 74 | 0.0 | 0.0 | 0.00 | 0.00 | 0.00 | 15 | 1018.2 | |
| 20260510064017 | 74 | 0.0 | 0.0 | 0.00 | 0.00 | 0.00 | 15 | 1018.2 | |
| 20260510063917 | 74 | 0.0 | 0.0 | 0.00 | 0.00 | 0.00 | 15 | 1018.2 | |
| 20260510063817 | 74 | 0.0 | 0.0 | 0.00 | 0.00 | 0.00 | 15 | 1018.2 | |
| 20260510063717 | 74 | 0.0 | 0.0 | 0.00 | 0.00 | 0.00 | 15 | 1018.5 | |
| 20260510063616 | 74 | 0.0 | 0.0 | 0.00 | 0.00 | 0.00 | 15 | 1018.5 | |
| 20260510063517 | 75 | 0.0 | 0.0 | 0.00 | 0.00 | 0.00 | 14 | 1018.5 | |
| 20260510063417 | 75 | 0.0 | 0.0 | 0.00 | 0.00 | 0.00 | 14 | 1018.5 | |
| 20260510063317 | 75 | 0.0 | 0.0 | 0.00 | 0.00 | 0.00 | 14 | 1018.2 | |
| 20260510063217 | 75 | 0.0 | 0.0 | 0.00 | 0.00 | 0.00 | 14 | 1018.2 | |
| 20260510063158 | 75 | 0.0 | 0.0 | 0.00 | 0.00 | 0.00 | 14 | 1018.5 | |
| 20260510063018 | 75 | 0.0 | 0.0 | 0.00 | 0.00 | 0.00 | 14 | 1018.4 | |
| 20260510062917 | 75 | 0.0 | 0.0 | 0.00 | 0.00 | 0.00 | 14 | 1018.5 | |
| 20260510062817 | 76 | 0.0 | 0.0 | 0.00 | 0.00 | 0.00 | 14 | 1018.4 | |
| 20260510062718 | 76 | 0.0 | 0.0 | 0.00 | 0.00 | 0.00 | 14 | 1018.5 | |
| 20260510062616 | 76 | 0.0 | 0.0 | 0.00 | 0.00 | 0.00 | 14 | 1018.5 | |
| 20260510062519 | 76 | 0.0 | 0.0 | 0.00 | 0.00 | 0.00 | 13 | 1018.7 | |
| 20260510062317 | 76 | 0.0 | 0.0 | 0.00 | 0.00 | 0.00 | 13 | 1018.4 | |
| 20260510062217 | 77 | 0.0 | 0.0 | 0.00 | 0.00 | 0.00 | 13 | 1018.4 | |
| 20260510062117 | 77 | 0.0 | 0.0 | 0.00 | 0.00 | 0.00 | 13 | 1018.4 | |
| 20260510062017 | 77 | 0.0 | 0.0 | 0.00 | 0.00 | 0.00 | 13 | 1018.4 | |
| 20260510061917 | 77 | 0.0 | 0.0 | 0.00 | 0.00 | 0.00 | 13 | 1018.4 | |
| 20260510061817 | 77 | 0.0 | 0.0 | 0.00 | 0.00 | 0.00 | 13 | 1018.4 | |
| 20260510061718 | 77 | 0.0 | 0.0 | 0.00 | 0.00 | 0.00 | 13 | 1018.4 | |
| 20260510061616 | 77 | 0.0 | 0.0 | 0.00 | 0.00 | 0.00 | 13 | 1018.2 | |
| 20260510061517 | 77 | 0.0 | 0.0 | 0.00 | 0.00 | 0.00 | 13 | 1018.2 | |
| 20260510061458 | 77 | 0.0 | 0.0 | 0.00 | 0.00 | 0.00 | 13 | 1018.1 | |
| 20260510061318 | 77 | 0.0 | 0.0 | 0.00 | 0.00 | 0.00 | 13 | 1018.4 | |
| 20260510061217 | 77 | 0.0 | 0.0 | 0.00 | 0.00 | 0.00 | 13 | 1018.4 | |
| 20260510061137 | 77 | 0.0 | 0.0 | 0.00 | 0.00 | 0.00 | 13 | 1018.3 | |
| 20260510061017 | 77 | 0.0 | 0.0 | 0.00 | 0.00 | 0.00 | 13 | 1018.1 | |
| 20260510060917 | 77 | 0.0 | 0.0 | 0.00 | 0.00 | 0.00 | 13 | 1018.4 | |
| 20260510060838 | 77 | 0.0 | 0.0 | 0.00 | 0.00 | 0.00 | 13 | 1018.1 | |
| 20260510060718 | 77 | 0.0 | 0.0 | 0.00 | 0.00 | 0.00 | 13 | 1018.0 | |
| 20260510060616 | 77 | 0.0 | 0.0 | 0.00 | 0.00 | 0.00 | 13 | 1018.1 | |
| 20260510060517 | 77 | 0.0 | 0.0 | 0.00 | 0.00 | 0.00 | 13 | 1018.4 | |
| 20260510060417 | 77 | 0.0 | 0.0 | 0.00 | 0.00 | 0.00 | 13 | 1018.4 | |
| 20260510060318 | 77 | 0.0 | 0.0 | 0.00 | 0.00 | 0.00 | 13 | 1018.4 | |
| 20260510060217 | 77 | 0.0 | 0.0 | 0.00 | 0.00 | 0.00 | 13 | 1018.4 | |
| 20260510060118 | 77 | 0.0 | 0.0 | 0.00 | 0.00 | 0.00 | 13 | 1018.2 | |
| 20260510060018 | 77 | 0.0 | 0.0 | 0.00 | 0.00 | 0.00 | 13 | 1018.2 | |
| 20260510055917 | 77 | 0.0 | 0.0 | 0.00 | 0.00 | 0.00 | 13 | 1018.2 | |
| 20260510055818 | 77 | 0.0 | 0.0 | 0.00 | 0.00 | 0.00 | 13 | 1018.0 | |
| 20260510055718 | 77 | 0.0 | 0.0 | 0.00 | 0.00 | 0.00 | 13 | 1018.0 | |
| 20260510055618 | 77 | 0.0 | 0.0 | 0.00 | 0.00 | 0.00 | 13 | 1018.0 | |
| 20260510055537 | 77 | 0.0 | 0.0 | 0.00 | 0.00 | 0.00 | 13 | 1017.9 | |
| 20260510055417 | 76 | 0.0 | 0.0 | 0.00 | 0.00 | 0.00 | 13 | 1017.9 | |
| 20260510055318 | 76 | 0.0 | 0.0 | 0.00 | 0.00 | 0.00 | 13 | 1018.0 | |
| 20260510055218 | 76 | 0.0 | 0.0 | 0.00 | 0.00 | 0.00 | 14 | 1018.0 | |
| 20260510055117 | 76 | 0.0 | 0.0 | 0.00 | 0.00 | 0.00 | 14 | 1018.0 | |
| 20260510055017 | 76 | 0.0 | 0.0 | 0.00 | 0.00 | 0.00 | 14 | 1017.9 | |
| 20260510054917 | 75 | 0.0 | 0.0 | 0.00 | 0.00 | 0.00 | 14 | 1017.7 | |
| 20260510054817 | 75 | 0.0 | 0.0 | 0.00 | 0.00 | 0.00 | 14 | 1017.8 | |
| 20260510054717 | 76 | 0.0 | 0.0 | 0.00 | 0.00 | 0.00 | 13 | 1017.7 | |
| 20260510054638 | 76 | 0.0 | 0.0 | 0.00 | 0.00 | 0.00 | 13 | 1018.0 | |
| 20260510054516 | 76 | 0.0 | 0.0 | 0.00 | 0.00 | 0.00 | 13 | 1018.0 | |
| 20260510054416 | 76 | 0.0 | 0.0 | 0.00 | 0.00 | 0.00 | 13 | 1018.0 | |
| 20260510054317 | 76 | 0.0 | 0.0 | 0.00 | 0.00 | 0.00 | 13 | 1018.1 | |
| 20260510054217 | 76 | 0.0 | 0.0 | 0.00 | 0.00 | 0.00 | 13 | 1018.0 | |
| 20260510054137 | 77 | 0.0 | 0.0 | 0.00 | 0.00 | 0.00 | 13 | 1018.0 | |
| 20260510054017 | 77 | 0.0 | 0.0 | 0.00 | 0.00 | 0.00 | 13 | 1018.0 | |
| 20260510053917 | 77 | 0.0 | 0.0 | 0.00 | 0.00 | 0.00 | 13 | 1018.0 | |
| 20260510053817 | 77 | 0.0 | 0.0 | 0.00 | 0.00 | 0.00 | 13 | 1017.8 | |
| 20260510053717 | 77 | 0.0 | 0.0 | 0.00 | 0.00 | 0.00 | 13 | 1017.7 | |
| 20260510053618 | 77 | 0.0 | 0.0 | 0.00 | 0.00 | 0.00 | 13 | 1017.7 | |
| 20260510053516 | 77 | 0.0 | 0.0 | 0.00 | 0.00 | 0.00 | 13 | 1017.7 | |
| 20260510053417 | 77 | 0.0 | 0.0 | 0.00 | 0.00 | 0.00 | 13 | 1017.7 | |
| 20260510053316 | 77 | 0.0 | 0.0 | 0.00 | 0.00 | 0.00 | 12 | 1017.6 | |
| 20260510053217 | 77 | 0.0 | 0.0 | 0.00 | 0.00 | 0.00 | 12 | 1017.9 | |
| 20260510053117 | 77 | 0.0 | 0.0 | 0.00 | 0.00 | 0.00 | 12 | 1017.8 | |
| 20260510053018 | 77 | 0.0 | 0.0 | 0.00 | 0.00 | 0.00 | 12 | 1017.9 | |
| 20260510052918 | 77 | 0.0 | 0.0 | 0.00 | 0.00 | 0.00 | 12 | 1017.8 | |
| 20260510052817 | 78 | 0.0 | 0.0 | 0.00 | 0.00 | 0.00 | 12 | 1017.9 | |
| 20260510052716 | 78 | 0.0 | 0.0 | 0.00 | 0.00 | 0.00 | 12 | 1017.9 | |
| 20260510052616 | 78 | 0.0 | 0.0 | 0.00 | 0.00 | 0.00 | 12 | 1017.9 | |
| 20260510052516 | 78 | 0.0 | 0.0 | 0.00 | 0.00 | 0.00 | 12 | 1017.8 | |
| 20260510052416 | 78 | 0.0 | 0.0 | 0.00 | 0.00 | 0.00 | 12 | 1017.9 | |
| 20260510052317 | 78 | 0.0 | 0.0 | 0.00 | 0.00 | 0.00 | 12 | 1017.6 | |
| 20260510052237 | 78 | 0.0 | 0.0 | 0.00 | 0.00 | 0.00 | 12 | 1017.6 | |
| 20260510052116 | 78 | 0.0 | 0.0 | 0.00 | 0.00 | 0.00 | 12 | 1017.7 | |
| 20260510052017 | 78 | 0.0 | 0.0 | 0.00 | 0.00 | 0.00 | 12 | 1017.6 | |
| 20260510051916 | 78 | 0.0 | 0.0 | 0.00 | 0.00 | 0.00 | 12 | 1017.6 | |
| 20260510051818 | 78 | 0.0 | 0.0 | 0.00 | 0.00 | 0.00 | 12 | 1017.6 | |
| 20260510051717 | 78 | 0.0 | 0.0 | 0.00 | 0.00 | 0.00 | 12 | 1017.6 | |
| 20260510051618 | 78 | 0.0 | 0.0 | 0.00 | 0.00 | 0.00 | 12 | 1017.7 | |
| 20260510051517 | 78 | 0.0 | 0.0 | 0.00 | 0.00 | 0.00 | 12 | 1017.9 | |
| 20260510051417 | 78 | 0.0 | 0.0 | 0.00 | 0.00 | 0.00 | 12 | 1017.9 | |
| 20260510051337 | 78 | 0.0 | 0.0 | 0.00 | 0.00 | 0.00 | 12 | 1018.0 | |
| 20260510051217 | 79 | 0.0 | 0.0 | 0.00 | 0.00 | 0.00 | 12 | 1017.9 | |
| 20260510051138 | 79 | 0.0 | 0.0 | 0.00 | 0.00 | 0.00 | 12 | 1017.9 | |
| 20260510051016 | 79 | 0.0 | 0.0 | 0.00 | 0.00 | 0.00 | 12 | 1017.9 | |
| 20260510050917 | 79 | 0.0 | 0.0 | 0.00 | 0.00 | 0.00 | 12 | 1017.9 | |
| 20260510050816 | 79 | 0.0 | 0.0 | 0.00 | 0.00 | 0.00 | 12 | 1017.9 | |
| 20260510050717 | 79 | 0.0 | 0.0 | 0.00 | 0.00 | 0.00 | 12 | 1017.9 | |
| 20260510050617 | 79 | 0.0 | 0.0 | 0.00 | 0.00 | 0.00 | 12 | 1017.7 | |
| 20260510050517 | 79 | 0.0 | 0.0 | 0.00 | 0.00 | 0.00 | 12 | 1017.7 | |
| 20260510050417 | 79 | 0.0 | 0.0 | 0.00 | 0.00 | 0.00 | 11 | 1017.7 | |
| 20260510050317 | 79 | 0.0 | 0.0 | 0.00 | 0.00 | 0.00 | 11 | 1017.6 | |
| 20260510050218 | 79 | 0.0 | 0.0 | 0.00 | 0.00 | 0.00 | 11 | 1017.6 | |
| 20260510050117 | 79 | 0.0 | 0.0 | 0.00 | 0.00 | 0.00 | 11 | 1017.7 | |
| 20260510050037 | 79 | 0.0 | 0.0 | 0.00 | 0.00 | 0.00 | 11 | 1017.7 | |
| 20260510045937 | 79 | 0.0 | 0.0 | 0.00 | 0.00 | 0.00 | 11 | 1017.7 | |
| 20260510045818 | 79 | 0.0 | 0.0 | 0.00 | 0.00 | 0.00 | 11 | 1017.6 | |
| 20260510045716 | 79 | 0.0 | 0.0 | 0.00 | 0.00 | 0.00 | 11 | 1017.6 | |
| 20260510045616 | 79 | 0.0 | 0.0 | 0.00 | 0.00 | 0.00 | 11 | 1017.7 | |
| 20260510045516 | 79 | 0.0 | 0.0 | 0.00 | 0.00 | 0.00 | 11 | 1017.7 | |
| 20260510045416 | 79 | 0.0 | 0.0 | 0.00 | 0.00 | 0.00 | 11 | 1017.7 | |
| 20260510045316 | 79 | 0.0 | 0.0 | 0.00 | 0.00 | 0.00 | 11 | 1017.6 | |
| 20260510045217 | 79 | 0.0 | 0.0 | 0.00 | 0.00 | 0.00 | 11 | 1017.6 | |
| 20260510045117 | 80 | 0.0 | 0.0 | 0.00 | 0.00 | 0.00 | 11 | 1017.7 | |
| 20260510045017 | 80 | 0.0 | 0.0 | 0.00 | 0.00 | 0.00 | 11 | 1017.6 | |
| 20260510044917 | 80 | 0.0 | 0.0 | 0.00 | 0.00 | 0.00 | 11 | 1017.7 | |
| 20260510044818 | 80 | 0.0 | 0.0 | 0.00 | 0.00 | 0.00 | 11 | 1017.6 | |
| 20260510044718 | 80 | 0.0 | 0.0 | 0.00 | 0.00 | 0.00 | 11 | 1017.7 | |
| 20260510044618 | 80 | 0.0 | 0.0 | 0.00 | 0.00 | 0.00 | 11 | 1017.6 | |
| 20260510044517 | 80 | 0.0 | 0.0 | 0.00 | 0.00 | 0.00 | 11 | 1017.9 | |
| 20260510044417 | 80 | 0.0 | 0.0 | 0.00 | 0.00 | 0.00 | 11 | 1017.9 | |
| 20260510044337 | 80 | 0.0 | 0.0 | 0.00 | 0.00 | 0.00 | 11 | 1017.9 | |
| 20260510044238 | 80 | 0.0 | 0.0 | 0.00 | 0.00 | 0.00 | 11 | 1017.6 | |
| 20260510044116 | 80 | 0.0 | 0.0 | 0.00 | 0.00 | 0.00 | 11 | 1017.7 | |
| 20260510044017 | 81 | 0.0 | 0.0 | 0.00 | 0.00 | 0.00 | 11 | 1017.6 | |
| 20260510043937 | 81 | 0.0 | 0.0 | 0.00 | 0.00 | 0.00 | 11 | 1017.7 | |
| 20260510043816 | 81 | 0.0 | 0.0 | 0.00 | 0.00 | 0.00 | 11 | 1017.7 | |
| 20260510043716 | 81 | 0.0 | 0.0 | 0.00 | 0.00 | 0.00 | 10 | 1017.7 | |
| 20260510043637 | 81 | 0.0 | 0.0 | 0.00 | 0.00 | 0.00 | 10 | 1017.6 | |
| 20260510043516 | 81 | 0.0 | 0.0 | 0.00 | 0.00 | 0.00 | 10 | 1017.6 | |
| 20260510043418 | 81 | 0.0 | 0.0 | 0.00 | 0.00 | 0.00 | 10 | 1017.8 | |
| 20260510043317 | 81 | 0.0 | 0.0 | 0.00 | 0.00 | 0.00 | 10 | 1017.8 | |
| 20260510043216 | 81 | 0.0 | 0.0 | 0.00 | 0.00 | 0.00 | 10 | 1017.7 | |
| 20260510043116 | 81 | 0.0 | 0.0 | 0.00 | 0.00 | 0.00 | 10 | 1017.6 | |
| 20260510043017 | 81 | 0.0 | 0.0 | 0.00 | 0.00 | 0.00 | 10 | 1017.6 | |
| 20260510042917 | 81 | 0.0 | 0.0 | 0.00 | 0.00 | 0.00 | 10 | 1017.7 | |
| 20260510042816 | 82 | 0.0 | 0.0 | 0.00 | 0.00 | 0.00 | 10 | 1017.6 | |
| 20260510042717 | 82 | 0.0 | 0.0 | 0.00 | 0.00 | 0.00 | 10 | 1017.6 | |
| 20260510042617 | 82 | 0.0 | 0.0 | 0.00 | 0.00 | 0.00 | 10 | 1017.8 | |
| 20260510042417 | 82 | 0.0 | 0.0 | 0.00 | 0.00 | 0.00 | 10 | 1017.8 | |
| 20260510042318 | 82 | 0.0 | 0.0 | 0.00 | 0.00 | 0.00 | 10 | 1017.8 | |
| 20260510042217 | 82 | 0.0 | 0.0 | 0.00 | 0.00 | 0.00 | 10 | 1017.6 | |
| 20260510042117 | 82 | 0.0 | 0.0 | 0.00 | 0.00 | 0.00 | 10 | 1017.5 | |
| 20260510042038 | 82 | 0.0 | 0.0 | 0.00 | 0.00 | 0.00 | 10 | 1017.6 | |
| 20260510041918 | 82 | 0.0 | 0.0 | 0.00 | 0.00 | 0.00 | 10 | 1017.6 | |
| 20260510041818 | 82 | 0.0 | 0.0 | 0.00 | 0.00 | 0.00 | 10 | 1017.5 | |
| 20260510041716 | 82 | 0.0 | 0.0 | 0.00 | 0.00 | 0.00 | 10 | 1017.7 | |
| 20260510041617 | 82 | 0.0 | 0.0 | 0.00 | 0.00 | 0.00 | 10 | 1017.8 | |
| 20260510041516 | 82 | 0.0 | 0.0 | 0.00 | 0.00 | 0.00 | 10 | 1017.8 | |
| 20260510041437 | 82 | 0.0 | 0.0 | 0.00 | 0.00 | 0.00 | 10 | 1017.8 | |
| 20260510041316 | 82 | 0.0 | 0.0 | 0.00 | 0.00 | 0.00 | 10 | 1017.7 | |
| 20260510041216 | 82 | 0.0 | 0.0 | 0.00 | 0.00 | 0.00 | 10 | 1017.8 | |
| 20260510041159 | 82 | 0.0 | 0.0 | 0.00 | 0.00 | 0.00 | 10 | 1017.8 | |
| 20260510041016 | 82 | 0.0 | 0.0 | 0.00 | 0.00 | 0.00 | 10 | 1017.8 | |
| 20260510040917 | 82 | 0.0 | 0.0 | 0.00 | 0.00 | 0.00 | 10 | 1017.8 | |
| 20260510040817 | 82 | 0.0 | 0.0 | 0.00 | 0.00 | 0.00 | 10 | 1017.8 | |
| 20260510040716 | 82 | 0.0 | 0.0 | 0.00 | 0.00 | 0.00 | 10 | 1017.8 | |
| 20260510040617 | 82 | 0.0 | 0.0 | 0.00 | 0.00 | 0.00 | 10 | 1017.6 | |
| 20260510040517 | 82 | 0.0 | 0.0 | 0.00 | 0.00 | 0.00 | 10 | 1017.6 | |
| 20260510040418 | 82 | 0.0 | 0.0 | 0.00 | 0.00 | 0.00 | 10 | 1017.6 | |
| 20260510040317 | 82 | 0.0 | 0.0 | 0.00 | 0.00 | 0.00 | 10 | 1017.5 | |
| 20260510040216 | 82 | 0.0 | 0.0 | 0.00 | 0.00 | 0.00 | 10 | 1017.6 | |
| 20260510040116 | 82 | 0.0 | 0.0 | 0.00 | 0.00 | 0.00 | 10 | 1017.5 | |
| 20260510040017 | 82 | 0.0 | 0.0 | 0.00 | 0.00 | 0.00 | 10 | 1017.5 | |
| 20260510035918 | 82 | 0.0 | 0.0 | 0.00 | 0.00 | 0.00 | 10 | 1017.5 | |
| 20260510035857 | 82 | 0.0 | 0.0 | 0.00 | 0.00 | 0.00 | 10 | 1017.5 | |
| 20260510035737 | 83 | 0.0 | 0.0 | 0.00 | 0.00 | 0.00 | 10 | 1017.5 | |
| 20260510035617 | 83 | 0.0 | 0.0 | 0.00 | 0.00 | 0.00 | 10 | 1017.5 | |
| 20260510035517 | 83 | 0.0 | 0.0 | 0.00 | 0.00 | 0.00 | 10 | 1017.5 | |
| 20260510035418 | 83 | 0.0 | 0.0 | 0.00 | 0.00 | 0.00 | 10 | 1017.5 | |
| 20260510035337 | 83 | 0.0 | 0.0 | 0.00 | 0.00 | 0.00 | 10 | 1017.5 | |
| 20260510035216 | 83 | 0.0 | 0.0 | 0.00 | 0.00 | 0.00 | 10 | 1017.4 | |
| 20260510035117 | 83 | 0.0 | 0.0 | 0.00 | 0.00 | 0.00 | 10 | 1017.4 | |
| 20260510035017 | 83 | 0.0 | 0.0 | 0.00 | 0.00 | 0.00 | 10 | 1017.4 | |
| 20260510034916 | 83 | 0.0 | 0.0 | 0.00 | 0.00 | 0.00 | 10 | 1017.4 | |
| 20260510034818 | 83 | 0.0 | 0.0 | 0.00 | 0.00 | 0.00 | 10 | 1017.5 | |
| 20260510034717 | 83 | 0.0 | 0.0 | 0.00 | 0.00 | 0.00 | 10 | 1017.4 | |
| 20260510034637 | 83 | 0.0 | 0.0 | 0.00 | 0.00 | 0.00 | 10 | 1017.5 | |
| 20260510034517 | 83 | 0.0 | 0.0 | 0.00 | 0.00 | 0.00 | 10 | 1017.4 | |
| 20260510034416 | 83 | 0.0 | 0.0 | 0.00 | 0.00 | 0.00 | 10 | 1017.4 | |
| 20260510034319 | 83 | 0.0 | 0.0 | 0.00 | 0.00 | 0.00 | 10 | 1017.4 | |
| 20260510034317 | 83 | 0.0 | 0.0 | 0.00 | 0.00 | 0.00 | 10 | 1017.4 | |
| 20260510034117 | 83 | 0.0 | 0.0 | 0.00 | 0.00 | 0.00 | 10 | 1017.3 | |
| 20260510034016 | 83 | 0.0 | 0.0 | 0.00 | 0.00 | 0.00 | 10 | 1017.4 | |
| 20260510033917 | 83 | 0.0 | 0.0 | 0.00 | 0.00 | 0.00 | 10 | 1017.4 | |
| 20260510033818 | 83 | 0.0 | 0.0 | 0.00 | 0.00 | 0.00 | 10 | 1017.4 | |
| 20260510033736 | 83 | 0.0 | 0.0 | 0.00 | 0.00 | 0.00 | 10 | 1017.2 | |
| 20260510033616 | 83 | 0.0 | 0.0 | 0.00 | 0.00 | 0.00 | 10 | 1017.1 | |
| 20260510033516 | 83 | 0.0 | 0.0 | 0.00 | 0.00 | 0.00 | 10 | 1017.1 | |
| 20260510033416 | 83 | 0.0 | 0.0 | 0.00 | 0.00 | 0.00 | 10 | 1017.1 | |
| 20260510033316 | 83 | 0.0 | 0.0 | 0.00 | 0.00 | 0.00 | 10 | 1017.1 | |
| 20260510033217 | 83 | 0.0 | 0.0 | 0.00 | 0.00 | 0.00 | 10 | 1017.1 | |
| 20260510033138 | 84 | 0.0 | 0.0 | 0.00 | 0.00 | 0.00 | 10 | 1017.1 | |
| 20260510033016 | 84 | 0.0 | 0.0 | 0.00 | 0.00 | 0.00 | 10 | 1017.2 | |
| 20260510032938 | 84 | 0.0 | 0.0 | 0.00 | 0.00 | 0.00 | 10 | 1017.1 | |
| 20260510032818 | 84 | 0.0 | 0.0 | 0.00 | 0.00 | 0.00 | 10 | 1017.1 | |
| 20260510032716 | 84 | 0.0 | 0.0 | 0.00 | 0.00 | 0.00 | 10 | 1017.0 | |
| 20260510032617 | 84 | 0.0 | 0.0 | 0.00 | 0.00 | 0.00 | 10 | 1017.0 | |
| 20260510032536 | 84 | 0.0 | 0.0 | 0.00 | 0.00 | 0.00 | 10 | 1017.0 | |
| 20260510032417 | 84 | 0.0 | 0.0 | 0.00 | 0.00 | 0.00 | 10 | 1017.0 | |
| 20260510032317 | 84 | 0.0 | 0.0 | 0.00 | 0.00 | 0.00 | 10 | 1017.1 | |
| 20260510032216 | 84 | 0.0 | 0.0 | 0.00 | 0.00 | 0.00 | 10 | 1017.1 | |
| 20260510032136 | 84 | 0.0 | 0.0 | 0.00 | 0.00 | 0.00 | 10 | 1017.0 | |
| 20260510032017 | 84 | 0.0 | 0.0 | 0.00 | 0.00 | 0.00 | 10 | 1016.7 | |
| 20260510031916 | 84 | 0.0 | 0.0 | 0.00 | 0.00 | 0.00 | 10 | 1016.7 | |
| 20260510031817 | 84 | 0.0 | 0.0 | 0.00 | 0.00 | 0.00 | 10 | 1016.9 | |
| 20260510031717 | 84 | 0.0 | 0.0 | 0.00 | 0.00 | 0.00 | 10 | 1017.0 | |
| 20260510031617 | 84 | 0.0 | 0.0 | 0.00 | 0.00 | 0.00 | 10 | 1017.0 | |
| 20260510031517 | 84 | 0.0 | 0.0 | 0.00 | 0.00 | 0.00 | 10 | 1017.0 | |
| 20260510031417 | 84 | 0.0 | 0.0 | 0.00 | 0.00 | 0.00 | 10 | 1017.0 | |
| 20260510031317 | 84 | 0.0 | 0.0 | 0.00 | 0.00 | 0.00 | 10 | 1017.0 | |
| 20260510031217 | 84 | 0.0 | 0.0 | 0.00 | 0.00 | 0.00 | 10 | 1017.0 | |
| 20260510031117 | 85 | 0.0 | 0.0 | 0.00 | 0.00 | 0.00 | 10 | 1017.0 | |
| 20260510031016 | 85 | 0.0 | 0.0 | 0.00 | 0.00 | 0.00 | 10 | 1017.0 | |
| 20260510030917 | 85 | 0.0 | 0.0 | 0.00 | 0.00 | 0.00 | 9 | 1016.8 | |
| 20260510030817 | 85 | 0.0 | 0.0 | 0.00 | 0.00 | 0.00 | 10 | 1016.9 | |
| 20260510030716 | 85 | 0.0 | 0.0 | 0.00 | 0.00 | 0.00 | 10 | 1017.0 | |
| 20260510030618 | 85 | 0.0 | 0.0 | 0.00 | 0.00 | 0.00 | 10 | 1017.0 | |
| 20260510030516 | 85 | 0.0 | 0.0 | 0.00 | 0.00 | 0.00 | 10 | 1016.7 | |
| 20260510030417 | 85 | 0.0 | 0.0 | 0.00 | 0.00 | 0.00 | 9 | 1016.7 | |
| 20260510030317 | 85 | 0.0 | 0.0 | 0.00 | 0.00 | 0.00 | 10 | 1016.6 | |
| 20260510030216 | 85 | 0.0 | 0.0 | 0.00 | 0.00 | 0.00 | 10 | 1016.6 | |
| 20260510030116 | 85 | 0.0 | 0.0 | 0.00 | 0.00 | 0.00 | 10 | 1016.6 | |
| 20260510030016 | 85 | 0.0 | 0.0 | 0.00 | 0.00 | 0.00 | 10 | 1016.6 | |
| 20260510025917 | 85 | 0.0 | 0.0 | 0.00 | 0.00 | 0.00 | 9 | 1016.6 | |
| 20260510025838 | 85 | 0.0 | 0.0 | 0.00 | 0.00 | 0.00 | 9 | 1016.5 | |
| 20260510025717 | 85 | 0.0 | 0.0 | 0.00 | 0.00 | 0.00 | 10 | 1016.8 | |
| 20260510025638 | 85 | 0.0 | 0.0 | 0.00 | 0.00 | 0.00 | 10 | 1016.8 | |
| 20260510025517 | 85 | 0.0 | 0.0 | 0.00 | 0.00 | 0.00 | 10 | 1016.8 | |
| 20260510025416 | 85 | 0.0 | 0.0 | 0.00 | 0.00 | 0.00 | 10 | 1016.5 | |
| 20260510025316 | 85 | 0.0 | 0.0 | 0.00 | 0.00 | 0.00 | 10 | 1016.5 | |
| 20260510025216 | 85 | 0.0 | 0.0 | 0.00 | 0.00 | 0.00 | 9 | 1016.4 | |
| 20260510025118 | 85 | 0.0 | 0.0 | 0.00 | 0.00 | 0.00 | 9 | 1016.5 | |
| 20260510025037 | 85 | 0.0 | 0.0 | 0.00 | 0.00 | 0.00 | 9 | 1016.4 | |
| 20260510024916 | 86 | 0.0 | 0.0 | 0.00 | 0.00 | 0.00 | 9 | 1016.4 | |
| 20260510024817 | 86 | 0.0 | 0.0 | 0.00 | 0.00 | 0.00 | 9 | 1016.3 | |
| 20260510024716 | 86 | 0.0 | 0.0 | 0.00 | 0.00 | 0.00 | 9 | 1016.3 | |
| 20260510024616 | 86 | 0.0 | 0.0 | 0.00 | 0.00 | 0.00 | 9 | 1016.3 | |
| 20260510024516 | 86 | 0.0 | 0.0 | 0.00 | 0.00 | 0.00 | 9 | 1016.1 | |
| 20260510024417 | 86 | 0.0 | 0.0 | 0.00 | 0.00 | 0.00 | 9 | 1016.1 | |
| 20260510024316 | 86 | 0.0 | 0.0 | 0.00 | 0.00 | 0.00 | 9 | 1016.0 | |
| 20260510024216 | 86 | 0.0 | 0.0 | 0.00 | 0.00 | 0.00 | 9 | 1016.3 | |
| 20260510024117 | 86 | 0.0 | 0.0 | 0.00 | 0.00 | 0.00 | 9 | 1016.3 | |
| 20260510024017 | 86 | 0.0 | 0.0 | 0.00 | 0.00 | 0.00 | 9 | 1016.2 | |
| 20260510023937 | 86 | 0.0 | 0.0 | 0.00 | 0.00 | 0.00 | 9 | 1016.2 | |
| 20260510023816 | 86 | 0.0 | 0.0 | 0.00 | 0.00 | 0.00 | 9 | 1016.2 | |
| 20260510023717 | 86 | 0.0 | 0.0 | 0.00 | 0.00 | 0.00 | 9 | 1016.0 | |
| 20260510023617 | 87 | 0.0 | 0.0 | 0.00 | 0.00 | 0.00 | 9 | 1016.1 | |
| 20260510023516 | 87 | 0.0 | 0.0 | 0.00 | 0.00 | 0.00 | 9 | 1016.1 | |
| 20260510023417 | 87 | 0.0 | 0.0 | 0.00 | 0.00 | 0.00 | 9 | 1016.0 | |
| 20260510023316 | 87 | 0.0 | 0.0 | 0.00 | 0.00 | 0.00 | 9 | 1016.0 | |
| 20260510023237 | 87 | 0.0 | 0.0 | 0.00 | 0.00 | 0.00 | 9 | 1016.0 | |
| 20260510023116 | 87 | 0.0 | 0.0 | 0.00 | 0.00 | 0.00 | 9 | 1016.1 | |
| 20260510023017 | 87 | 0.0 | 0.0 | 0.00 | 0.00 | 0.00 | 9 | 1015.8 | |
| 20260510022917 | 87 | 0.0 | 0.0 | 0.00 | 0.00 | 0.00 | 9 | 1015.7 | |
| 20260510022817 | 87 | 0.0 | 0.0 | 0.00 | 0.00 | 0.00 | 9 | 1015.8 | |
| 20260510022718 | 87 | 0.0 | 0.0 | 0.00 | 0.00 | 0.00 | 9 | 1015.7 | |
| 20260510022616 | 87 | 0.0 | 0.0 | 0.00 | 0.00 | 0.00 | 9 | 1015.7 | |
| 20260510022537 | 87 | 0.0 | 0.0 | 0.00 | 0.00 | 0.00 | 9 | 1015.9 | |
| 20260510022416 | 87 | 0.0 | 0.0 | 0.00 | 0.00 | 0.00 | 9 | 1015.7 | |
| 20260510022316 | 87 | 0.0 | 0.0 | 0.00 | 0.00 | 0.00 | 9 | 1015.7 | |
| 20260510022217 | 87 | 0.0 | 0.0 | 0.00 | 0.00 | 0.00 | 9 | 1015.6 | |
| 20260510022116 | 87 | 0.0 | 0.0 | 0.00 | 0.00 | 0.00 | 9 | 1015.6 | |
| 20260510022016 | 87 | 0.0 | 0.0 | 0.00 | 0.00 | 0.00 | 9 | 1015.6 | |
| 20260510021957 | 88 | 0.0 | 0.0 | 0.00 | 0.00 | 0.00 | 9 | 1015.6 | |
| 20260510021838 | 88 | 0.0 | 0.0 | 0.00 | 0.00 | 0.00 | 9 | 1015.5 | |
| 20260510021717 | 88 | 0.0 | 0.0 | 0.00 | 0.00 | 0.00 | 9 | 1015.6 | |
| 20260510021616 | 88 | 0.0 | 0.0 | 0.00 | 0.00 | 0.00 | 9 | 1015.6 | |
| 20260510021516 | 88 | 0.0 | 0.0 | 0.00 | 0.00 | 0.00 | 9 | 1015.5 | |
| 20260510021416 | 88 | 0.0 | 0.0 | 0.00 | 0.00 | 0.00 | 9 | 1015.6 | |
| 20260510021317 | 88 | 0.0 | 0.0 | 0.00 | 0.00 | 0.00 | 8 | 1015.5 | |
| 20260510021218 | 88 | 0.0 | 0.0 | 0.00 | 0.00 | 0.00 | 8 | 1015.5 | |
| 20260510021117 | 88 | 0.0 | 0.0 | 0.00 | 0.00 | 0.00 | 8 | 1015.5 | |
| 20260510021016 | 88 | 0.0 | 0.0 | 0.00 | 0.00 | 0.00 | 8 | 1015.5 | |
| 20260510020916 | 88 | 0.0 | 0.0 | 0.00 | 0.00 | 0.00 | 8 | 1015.5 | |
| 20260510020816 | 88 | 0.0 | 0.0 | 0.00 | 0.00 | 0.00 | 8 | 1015.5 | |
| 20260510020716 | 89 | 0.0 | 0.0 | 0.00 | 0.00 | 0.00 | 8 | 1015.4 | |
| 20260510020637 | 89 | 0.0 | 0.0 | 0.00 | 0.00 | 0.00 | 8 | 1015.4 | |
| 20260510020516 | 89 | 0.0 | 0.0 | 0.00 | 0.00 | 0.00 | 8 | 1015.5 | |
| 20260510020417 | 89 | 0.0 | 0.0 | 0.00 | 0.00 | 0.00 | 8 | 1015.5 | |
| 20260510020336 | 89 | 0.0 | 0.0 | 0.00 | 0.00 | 0.00 | 8 | 1015.5 | |
| 20260510020237 | 89 | 0.0 | 0.0 | 0.00 | 0.00 | 0.00 | 8 | 1015.5 | |
| 20260510020137 | 89 | 0.0 | 0.0 | 0.00 | 0.00 | 0.00 | 8 | 1015.7 | |
| 20260510020016 | 89 | 0.0 | 0.0 | 0.00 | 0.00 | 0.00 | 8 | 1015.7 | |
| 20260510015916 | 89 | 0.0 | 0.0 | 0.00 | 0.00 | 0.00 | 8 | 1015.6 | |
| 20260510015817 | 89 | 0.0 | 0.0 | 0.00 | 0.00 | 0.00 | 8 | 1015.6 | |
| 20260510015716 | 90 | 0.0 | 0.0 | 0.00 | 0.00 | 0.00 | 8 | 1015.7 | |
| 20260510015617 | 90 | 0.0 | 0.0 | 0.00 | 0.00 | 0.00 | 8 | 1015.5 | |
| 20260510015518 | 90 | 0.0 | 0.0 | 0.00 | 0.00 | 0.00 | 8 | 1015.6 | |
| 20260510015416 | 90 | 0.0 | 0.0 | 0.00 | 0.00 | 0.00 | 8 | 1015.5 | |
| 20260510015316 | 90 | 0.0 | 0.0 | 0.00 | 0.00 | 0.00 | 8 | 1015.5 | |
| 20260510015216 | 90 | 0.0 | 0.0 | 0.00 | 0.00 | 0.00 | 8 | 1015.6 | |
| 20260510015136 | 90 | 0.0 | 0.0 | 0.00 | 0.00 | 0.00 | 8 | 1015.6 | |
| 20260510015016 | 90 | 0.0 | 0.0 | 0.00 | 0.00 | 0.00 | 8 | 1015.6 | |
| 20260510014937 | 90 | 0.0 | 0.0 | 0.00 | 0.00 | 0.00 | 8 | 1015.5 | |
| 20260510014818 | 90 | 0.0 | 0.0 | 0.00 | 0.00 | 0.00 | 8 | 1015.5 | |
| 20260510014718 | 90 | 0.0 | 0.0 | 0.00 | 0.00 | 0.00 | 8 | 1015.5 | |
| 20260510014618 | 90 | 0.0 | 0.0 | 0.00 | 0.00 | 0.00 | 8 | 1015.4 | |
| 20260510014517 | 90 | 0.0 | 0.0 | 0.00 | 0.00 | 0.00 | 8 | 1015.5 | |
| 20260510014418 | 90 | 0.0 | 0.0 | 0.00 | 0.00 | 0.00 | 8 | 1015.2 | |
| 20260510014316 | 91 | 0.0 | 0.0 | 0.00 | 0.00 | 0.00 | 8 | 1015.2 | |
| 20260510014218 | 91 | 0.0 | 0.0 | 0.00 | 0.00 | 0.00 | 8 | 1015.2 | |
| 20260510014116 | 91 | 0.0 | 0.0 | 0.00 | 0.00 | 0.00 | 8 | 1015.1 | |
| 20260510014016 | 91 | 0.0 | 0.0 | 0.00 | 0.00 | 0.00 | 8 | 1015.1 | |
| 20260510013957 | 91 | 0.0 | 0.0 | 0.00 | 0.00 | 0.00 | 8 | 1015.1 | |
| 20260510013816 | 91 | 0.0 | 0.0 | 0.00 | 0.00 | 0.00 | 8 | 1015.1 | |
| 20260510013717 | 91 | 0.0 | 0.0 | 0.00 | 0.00 | 0.00 | 8 | 1015.0 | |
| 20260510013617 | 91 | 0.0 | 0.0 | 0.00 | 0.00 | 0.00 | 8 | 1015.1 | |
| 20260510013516 | 91 | 0.0 | 0.0 | 0.00 | 0.00 | 0.00 | 8 | 1015.1 | |
| 20260510013438 | 91 | 0.0 | 0.0 | 0.00 | 0.00 | 0.00 | 8 | 1015.0 | |
| 20260510013217 | 91 | 0.0 | 0.0 | 0.00 | 0.00 | 0.00 | 8 | 1015.0 | |
| 20260510013116 | 91 | 0.0 | 0.0 | 0.00 | 0.00 | 0.00 | 8 | 1015.0 | |
| 20260510013016 | 91 | 0.0 | 0.0 | 0.00 | 0.00 | 0.00 | 9 | 1015.1 | |
| 20260510012938 | 91 | 0.0 | 0.0 | 0.00 | 0.00 | 0.00 | 8 | 1015.1 | |
| 20260510012816 | 91 | 0.0 | 0.0 | 0.00 | 0.00 | 0.00 | 8 | 1015.0 | |
| 20260510012716 | 91 | 0.0 | 0.0 | 0.00 | 0.00 | 0.00 | 8 | 1015.0 | |
| 20260510012638 | 91 | 0.0 | 0.0 | 0.00 | 0.00 | 0.00 | 8 | 1015.1 | |
| 20260510012517 | 91 | 0.0 | 0.0 | 0.00 | 0.00 | 0.00 | 9 | 1015.1 | |
| 20260510012458 | 91 | 0.0 | 0.0 | 0.00 | 0.00 | 0.00 | 8 | 1015.1 | |
| 20260510012317 | 92 | 0.0 | 0.0 | 0.00 | 0.00 | 0.00 | 8 | 1014.9 | |
| 20260510012218 | 92 | 0.0 | 0.0 | 0.00 | 0.00 | 0.00 | 9 | 1015.1 | |
| 20260510012116 | 92 | 0.0 | 0.0 | 0.00 | 0.00 | 0.00 | 8 | 1015.0 | |
| 20260510012018 | 92 | 0.0 | 0.0 | 0.00 | 0.00 | 0.00 | 8 | 1015.0 | |
| 20260510011916 | 92 | 0.0 | 0.0 | 0.00 | 0.00 | 0.00 | 8 | 1015.0 | |
| 20260510011816 | 92 | 0.0 | 0.0 | 0.00 | 0.00 | 0.00 | 8 | 1015.0 | |
| 20260510011716 | 92 | 0.0 | 0.0 | 0.00 | 0.00 | 0.00 | 8 | 1015.0 | |
| 20260510011618 | 92 | 0.0 | 0.0 | 0.00 | 0.00 | 0.00 | 8 | 1015.1 | |
| 20260510011517 | 92 | 0.0 | 0.0 | 0.00 | 0.00 | 0.00 | 8 | 1015.1 | |
| 20260510011416 | 92 | 0.0 | 0.0 | 0.00 | 0.00 | 0.00 | 8 | 1015.0 | |
| 20260510011316 | 92 | 0.0 | 0.0 | 0.00 | 0.00 | 0.00 | 8 | 1015.0 | |
| 20260510011217 | 92 | 0.0 | 0.0 | 0.00 | 0.00 | 0.00 | 8 | 1015.0 | |
| 20260510011116 | 92 | 0.0 | 0.0 | 0.00 | 0.00 | 0.00 | 8 | 1015.0 | |
| 20260510011016 | 92 | 0.0 | 0.0 | 0.00 | 0.00 | 0.00 | 8 | 1014.9 | |
| 20260510010916 | 92 | 0.0 | 0.0 | 0.00 | 0.00 | 0.00 | 8 | 1015.0 | |
| 20260510010818 | 92 | 0.0 | 0.0 | 0.00 | 0.00 | 0.00 | 8 | 1015.0 | |
| 20260510010718 | 92 | 0.0 | 0.0 | 0.00 | 0.00 | 0.00 | 8 | 1015.0 | |
| 20260510010616 | 92 | 0.0 | 0.0 | 0.00 | 0.00 | 0.00 | 8 | 1015.0 | |
| 20260510010516 | 92 | 0.0 | 0.0 | 0.00 | 0.00 | 0.00 | 8 | 1015.0 | |
| 20260510010417 | 92 | 0.0 | 0.0 | 0.00 | 0.00 | 0.00 | 8 | 1014.9 | |
| 20260510010317 | 93 | 0.0 | 0.0 | 0.00 | 0.00 | 0.00 | 8 | 1015.0 | |
| 20260510010216 | 93 | 0.0 | 0.0 | 0.00 | 0.00 | 0.00 | 8 | 1015.1 | |
| 20260510010116 | 93 | 0.0 | 0.0 | 0.00 | 0.00 | 0.00 | 8 | 1015.1 | |
| 20260510010036 | 93 | 0.0 | 0.0 | 0.00 | 0.00 | 0.00 | 8 | 1015.0 | |
| 20260510005918 | 93 | 0.0 | 0.0 | 0.00 | 0.00 | 0.00 | 8 | 1015.0 | |
| 20260510005816 | 93 | 0.0 | 0.0 | 0.00 | 0.00 | 0.00 | 8 | 1015.0 | |
| 20260510005738 | 93 | 0.0 | 0.0 | 0.00 | 0.00 | 0.00 | 8 | 1015.0 | |
| 20260510005636 | 93 | 0.0 | 0.0 | 0.00 | 0.00 | 0.00 | 8 | 1015.1 | |
| 20260510005517 | 93 | 0.0 | 0.0 | 0.00 | 0.00 | 0.00 | 8 | 1014.8 | |
| 20260510005416 | 93 | 0.0 | 0.0 | 0.00 | 0.00 | 0.00 | 8 | 1014.8 | |
| 20260510005316 | 93 | 0.0 | 0.0 | 0.00 | 0.00 | 0.00 | 8 | 1014.8 | |
| 20260510005216 | 93 | 0.0 | 0.0 | 0.00 | 0.00 | 0.00 | 8 | 1014.8 | |
| 20260510005116 | 93 | 0.0 | 0.0 | 0.00 | 0.00 | 0.00 | 8 | 1014.9 | |
| 20260510005017 | 93 | 0.0 | 0.0 | 0.00 | 0.00 | 0.00 | 8 | 1015.0 | |
| 20260510004917 | 93 | 0.0 | 0.0 | 0.00 | 0.00 | 0.00 | 8 | 1015.1 | |
| 20260510004839 | 93 | 0.0 | 0.0 | 0.00 | 0.00 | 0.00 | 8 | 1015.1 | |
| 20260510004717 | 93 | 0.0 | 0.0 | 0.00 | 0.00 | 0.00 | 8 | 1015.1 | |
| 20260510004616 | 93 | 0.0 | 0.0 | 0.00 | 0.00 | 0.00 | 8 | 1015.1 | |
| 20260510004536 | 93 | 0.0 | 0.0 | 0.00 | 0.00 | 0.00 | 8 | 1015.1 | |
| 20260510004416 | 94 | 0.0 | 0.0 | 0.00 | 0.00 | 0.00 | 8 | 1015.2 | |
| 20260510004316 | 94 | 0.0 | 0.0 | 0.00 | 0.00 | 0.00 | 8 | 1015.1 | |
| 20260510004216 | 94 | 0.0 | 0.0 | 0.00 | 0.00 | 0.00 | 8 | 1015.2 | |
| 20260510004116 | 94 | 0.0 | 0.0 | 0.00 | 0.00 | 0.00 | 8 | 1015.2 | |
| 20260510004017 | 94 | 0.0 | 0.0 | 0.00 | 0.00 | 0.00 | 8 | 1015.2 | |
| 20260510003916 | 94 | 0.0 | 0.0 | 0.00 | 0.00 | 0.00 | 8 | 1015.1 | |
| 20260510003817 | 94 | 0.0 | 0.0 | 0.00 | 0.00 | 0.00 | 8 | 1015.2 | |
| 20260510003717 | 93 | 0.0 | 0.0 | 0.00 | 0.00 | 0.00 | 8 | 1015.1 | |
| 20260510003618 | 93 | 0.0 | 0.0 | 0.00 | 0.00 | 0.00 | 8 | 1015.2 | |
| 20260510003516 | 94 | 0.0 | 0.0 | 0.00 | 0.00 | 0.00 | 8 | 1015.2 | |
| 20260510003416 | 94 | 0.0 | 0.0 | 0.00 | 0.00 | 0.00 | 8 | 1015.2 | |
| 20260510003337 | 94 | 0.0 | 0.0 | 0.00 | 0.00 | 0.00 | 7 | 1015.2 | |
| 20260510003216 | 94 | 0.0 | 0.0 | 0.00 | 0.00 | 0.00 | 8 | 1015.3 | |
| 20260510003116 | 94 | 0.0 | 0.0 | 0.00 | 0.00 | 0.00 | 8 | 1015.3 | |
| 20260510003018 | 94 | 0.0 | 0.0 | 0.00 | 0.00 | 0.00 | 8 | 1015.1 | |
| 20260510002957 | 94 | 0.0 | 0.0 | 0.00 | 0.00 | 0.00 | 8 | 1015.5 | |
| 20260510002817 | 94 | 0.0 | 0.0 | 0.00 | 0.00 | 0.00 | 7 | 1015.4 | |
| 20260510002716 | 94 | 0.0 | 0.0 | 0.00 | 0.00 | 0.00 | 7 | 1015.4 | |
| 20260510002616 | 94 | 0.0 | 0.0 | 0.00 | 0.00 | 0.00 | 8 | 1015.4 | |
| 20260510002516 | 94 | 0.0 | 0.0 | 0.00 | 0.00 | 0.00 | 8 | 1015.4 | |
| 20260510002416 | 94 | 0.0 | 0.0 | 0.00 | 0.00 | 0.00 | 7 | 1015.4 | |
| 20260510002316 | 94 | 0.0 | 0.0 | 0.00 | 0.00 | 0.00 | 7 | 1015.5 | |
| 20260510002216 | 94 | 0.0 | 0.0 | 0.00 | 0.00 | 0.00 | 7 | 1015.4 | |
| 20260510002116 | 94 | 0.0 | 0.0 | 0.00 | 0.00 | 0.00 | 7 | 1015.4 | |
| 20260510002016 | 94 | 0.0 | 0.0 | 0.00 | 0.00 | 0.00 | 7 | 1015.5 | |
| 20260510001916 | 94 | 0.0 | 0.0 | 0.00 | 0.00 | 0.00 | 7 | 1015.4 | |
| 20260510001817 | 94 | 0.0 | 0.0 | 0.00 | 0.00 | 0.00 | 7 | 1015.5 | |
| 20260510001716 | 94 | 0.0 | 0.0 | 0.00 | 0.00 | 0.00 | 7 | 1015.4 | |
| 20260510001617 | 94 | 0.0 | 0.0 | 0.00 | 0.00 | 0.00 | 7 | 1015.5 | |
| 20260510001516 | 94 | 0.0 | 0.0 | 0.00 | 0.00 | 0.00 | 7 | 1015.4 | |
| 20260510001418 | 94 | 0.0 | 0.0 | 0.00 | 0.00 | 0.00 | 7 | 1015.4 | |
| 20260510001317 | 94 | 0.0 | 0.0 | 0.00 | 0.00 | 0.00 | 7 | 1015.4 | |
| 20260510001218 | 94 | 0.0 | 0.0 | 0.00 | 0.00 | 0.00 | 7 | 1015.4 | |
| 20260510001116 | 94 | 0.0 | 0.0 | 0.00 | 0.00 | 0.00 | 7 | 1015.4 | |
| 20260510001016 | 94 | 0.0 | 0.0 | 0.00 | 0.00 | 0.00 | 7 | 1015.4 | |
| 20260510000916 | 94 | 0.0 | 0.0 | 0.00 | 0.00 | 0.00 | 7 | 1015.0 | |
| 20260510000816 | 94 | 0.0 | 0.0 | 0.00 | 0.00 | 0.00 | 7 | 1015.4 | |
| 20260510000716 | 94 | 0.0 | 0.0 | 0.00 | 0.00 | 0.00 | 7 | 1015.3 | |
| 20260510000637 | 94 | 0.0 | 0.0 | 0.00 | 0.00 | 0.00 | 7 | 1015.4 | |
| 20260510000516 | 94 | 0.0 | 0.0 | 0.00 | 0.00 | 0.00 | 7 | 1015.5 | |
| 20260510000436 | 95 | 0.0 | 0.0 | 0.00 | 0.00 | 0.00 | 7 | 1015.4 | |
| 20260510000319 | 95 | 0.0 | 0.0 | 0.00 | 0.00 | 0.00 | 7 | 1015.4 | |
| 20260510000218 | 94 | 0.0 | 0.0 | 0.00 | 0.00 | 0.00 | 7 | 1015.4 | |
| 20260510000116 | 94 | 0.0 | 0.0 | 0.00 | 0.00 | 0.00 | 7 | 1015.4 | |
| 20260510000016 | 94 | 0.0 | 0.0 | 0.00 | 0.00 | 0.00 | 7 | 1015.5 | |
| 20260509235917 | 94 | 0.0 | 0.0 | 0.00 | 0.00 | 0.00 | 7 | 1015.5 | |
| 20260509235817 | 95 | 0.0 | 0.0 | 0.00 | 0.00 | 0.00 | 7 | 1015.4 | |
| 20260509235738 | 95 | 0.0 | 0.0 | 0.00 | 0.00 | 0.00 | 7 | 1015.5 | |
| 20260509235617 | 95 | 0.0 | 0.0 | 0.00 | 0.00 | 0.00 | 7 | 1015.5 | |
| 20260509235516 | 95 | 0.0 | 0.0 | 0.00 | 0.00 | 0.00 | 7 | 1015.5 | |
| 20260509235416 | 94 | 0.0 | 0.0 | 0.00 | 0.00 | 0.00 | 7 | 1015.6 | |
| 20260509235316 | 95 | 0.0 | 0.0 | 0.00 | 0.00 | 0.00 | 7 | 1015.6 | |
| 20260509235238 | 95 | 0.0 | 0.0 | 0.00 | 0.00 | 0.00 | 7 | 1015.5 | |
| 20260509235136 | 95 | 0.0 | 0.0 | 0.00 | 0.00 | 0.00 | 7 | 1015.6 | |
| 20260509235036 | 95 | 0.0 | 0.0 | 0.00 | 0.00 | 0.00 | 7 | 1015.7 | |
| 20260509234916 | 95 | 0.0 | 0.0 | 0.00 | 0.00 | 0.00 | 7 | 1015.5 | |
| 20260509234837 | 95 | 0.0 | 0.0 | 0.00 | 0.00 | 0.00 | 7 | 1015.6 | |
| 20260509234716 | 95 | 0.0 | 0.0 | 0.00 | 0.00 | 0.00 | 7 | 1015.5 | |
| 20260509234616 | 95 | 0.0 | 0.0 | 0.00 | 0.00 | 0.00 | 7 | 1015.5 | |
| 20260509234538 | 94 | 0.0 | 0.0 | 0.00 | 0.00 | 0.00 | 7 | 1015.5 | |
| 20260509234416 | 94 | 0.0 | 0.0 | 0.00 | 0.00 | 0.00 | 7 | 1015.6 | |
| 20260509234317 | 94 | 0.0 | 0.0 | 0.00 | 0.00 | 0.00 | 7 | 1015.5 | |
| 20260509234237 | 94 | 0.0 | 0.0 | 0.00 | 0.00 | 0.00 | 7 | 1015.6 | |
| 20260509234138 | 95 | 0.0 | 0.0 | 0.00 | 0.00 | 0.00 | 7 | 1015.5 | |
| 20260509234016 | 95 | 0.0 | 0.0 | 0.00 | 0.00 | 0.00 | 7 | 1015.6 | |
| 20260509233918 | 95 | 0.0 | 0.0 | 0.00 | 0.00 | 0.00 | 7 | 1015.5 | |
| 20260509233816 | 95 | 0.0 | 0.0 | 0.00 | 0.00 | 0.00 | 7 | 1015.6 | |
| 20260509233718 | 95 | 0.0 | 0.0 | 0.00 | 0.00 | 0.00 | 7 | 1015.5 | |
| 20260509233616 | 95 | 0.0 | 0.0 | 0.00 | 0.00 | 0.00 | 7 | 1015.7 | |
| 20260509233516 | 95 | 0.0 | 0.0 | 0.00 | 0.00 | 0.00 | 7 | 1015.7 | |
| 20260509233437 | 95 | 0.0 | 0.0 | 0.00 | 0.00 | 0.00 | 7 | 1015.6 | |
| 20260509233316 | 95 | 0.0 | 0.0 | 0.00 | 0.00 | 0.00 | 7 | 1015.6 | |
| 20260509233216 | 95 | 0.0 | 0.0 | 0.00 | 0.00 | 0.00 | 7 | 1015.7 | |
| 20260509233137 | 95 | 0.0 | 0.0 | 0.00 | 0.00 | 0.00 | 6 | 1015.6 | |
| 20260509233016 | 95 | 0.0 | 0.0 | 0.00 | 0.00 | 0.00 | 7 | 1015.6 | |
| 20260509232916 | 95 | 0.0 | 0.0 | 0.00 | 0.00 | 0.00 | 7 | 1015.6 | |
| 20260509232816 | 95 | 0.0 | 0.0 | 0.00 | 0.00 | 0.00 | 6 | 1015.6 | |
| 20260509232716 | 95 | 0.0 | 0.0 | 0.00 | 0.00 | 0.00 | 7 | 1015.6 | |
| 20260509232616 | 95 | 0.0 | 0.0 | 0.00 | 0.00 | 0.00 | 7 | 1015.6 | |
| 20260509232517 | 95 | 0.0 | 0.0 | 0.00 | 0.00 | 0.00 | 7 | 1015.6 | |
| 20260509232316 | 95 | 0.0 | 0.0 | 0.00 | 0.00 | 0.00 | 7 | 1015.7 | |
| 20260509232216 | 95 | 0.0 | 0.0 | 0.00 | 0.00 | 0.00 | 7 | 1015.9 | |
| 20260509232116 | 95 | 0.0 | 0.0 | 0.00 | 0.00 | 0.00 | 6 | 1015.9 | |
| 20260509232017 | 96 | 0.0 | 0.0 | 0.00 | 0.00 | 0.00 | 6 | 1016.0 | |
| 20260509231916 | 96 | 0.0 | 0.0 | 0.00 | 0.00 | 0.00 | 6 | 1015.9 | |
| 20260509231816 | 96 | 0.0 | 0.0 | 0.00 | 0.00 | 0.00 | 6 | 1016.0 | |
| 20260509231716 | 96 | 0.0 | 0.0 | 0.00 | 0.00 | 0.00 | 6 | 1016.0 | |
| 20260509231637 | 96 | 0.0 | 0.0 | 0.00 | 0.00 | 0.00 | 6 | 1016.1 | |
| 20260509231516 | 96 | 0.0 | 0.0 | 0.00 | 0.00 | 0.00 | 6 | 1016.1 | |
| 20260509231417 | 96 | 0.0 | 0.0 | 0.00 | 0.00 | 0.00 | 6 | 1016.1 | |
| 20260509231316 | 96 | 0.0 | 0.0 | 0.00 | 0.00 | 0.00 | 6 | 1016.1 | |
| 20260509231216 | 96 | 0.0 | 0.0 | 0.00 | 0.00 | 0.00 | 6 | 1016.0 |